EW3712 Weather Reports


time (UTC)temp
C
wind
direction
speed
KPH
gust
KPH
rain 1hr
cm
rain 24hr
cm
rain mn
cm
humidity
%
barometer
mb
20260508173803 17 48 8.0 16.1 0.00 0.00 0.00 34 1016.6
20260508173703 17 52 8.0 17.7 0.00 0.00 0.00 34 1016.6
20260508173603 17 53 8.0 17.7 0.00 0.00 0.00 34 1016.6
20260508173504 17 53 6.4 17.7 0.00 0.00 0.00 35 1016.6
20260508173403 17 53 6.4 17.7 0.00 0.00 0.00 36 1016.7
20260508173303 17 51 6.4 17.7 0.00 0.00 0.00 36 1016.7
20260508173203 17 49 6.4 17.7 0.00 0.00 0.00 38 1016.8
20260508173103 17 53 8.0 17.7 0.00 0.00 0.00 37 1016.7
20260508173003 17 59 8.0 17.7 0.00 0.00 0.00 37 1016.7
20260508172903 17 66 8.0 17.7 0.00 0.00 0.00 37 1016.7
20260508172804 17 75 8.0 17.7 0.00 0.00 0.00 37 1016.8
20260508172703 17 76 8.0 16.1 0.00 0.00 0.00 36 1016.8
20260508172603 17 77 9.7 14.5 0.00 0.00 0.00 37 1016.8
20260508172503 17 79 9.7 14.5 0.00 0.00 0.00 37 1016.9
20260508172403 17 78 9.7 14.5 0.00 0.00 0.00 37 1016.8
20260508172306 17 73 9.7 16.1 0.00 0.00 0.00 37 1016.8
20260508172203 17 68 11.3 16.1 0.00 0.00 0.00 37 1016.8
20260508172103 17 65 11.3 16.1 0.00 0.00 0.00 37 1016.9
20260508172003 17 61 11.3 16.1 0.00 0.00 0.00 38 1016.9
20260508171803 17 53 9.7 16.1 0.00 0.00 0.00 38 1016.9
20260508171703 17 54 9.7 16.1 0.00 0.00 0.00 38 1016.9
20260508171603 16 55 9.7 16.1 0.00 0.00 0.00 39 1017.1
20260508171503 16 58 9.7 17.7 0.00 0.00 0.00 38 1017.0
20260508171403 16 58 9.7 17.7 0.00 0.00 0.00 39 1017.0
20260508171303 16 60 8.0 17.7 0.00 0.00 0.00 38 1016.9
20260508171203 16 63 8.0 17.7 0.00 0.00 0.00 39 1017.0
20260508171103 16 63 8.0 17.7 0.00 0.00 0.00 37 1017.0
20260508171003 16 63 8.0 17.7 0.00 0.00 0.00 38 1017.0
20260508170903 16 65 8.0 17.7 0.00 0.00 0.00 38 1017.0
20260508170804 16 68 8.0 17.7 0.00 0.00 0.00 37 1017.1
20260508170703 17 73 8.0 17.7 0.00 0.00 0.00 38 1017.1
20260508170503 17 82 8.0 17.7 0.00 0.00 0.00 37 1017.1
20260508170403 17 95 8.0 16.1 0.00 0.00 0.00 39 1017.2
20260508170303 17 96 9.7 16.1 0.00 0.00 0.00 41 1017.2
20260508170203 16 98 9.7 16.1 0.00 0.00 0.00 37 1017.2
20260508170003 16 95 9.7 16.1 0.00 0.00 0.00 38 1016.8
20260508165903 16 93 9.7 16.1 0.00 0.00 0.00 38 1016.8
20260508165803 16 93 9.7 16.1 0.00 0.00 0.00 38 1016.9
20260508165703 16 93 9.7 16.1 0.00 0.00 0.00 37 1016.8
20260508165604 16 93 9.7 16.1 0.00 0.00 0.00 38 1016.8
20260508165503 16 90 9.7 16.1 0.00 0.00 0.00 39 1016.9
20260508165403 16 84 9.7 16.1 0.00 0.00 0.00 38 1016.8
20260508165306 16 86 11.3 16.1 0.00 0.00 0.00 39 1016.9
20260508165203 16 84 11.3 17.7 0.00 0.00 0.00 38 1016.9
20260508165104 16 82 9.7 17.7 0.00 0.00 0.00 38 1016.8
20260508165003 16 82 9.7 17.7 0.00 0.00 0.00 38 1016.8
20260508164903 16 81 9.7 17.7 0.00 0.00 0.00 38 1016.8
20260508164803 16 81 9.7 17.7 0.00 0.00 0.00 39 1016.9
20260508164703 16 79 9.7 17.7 0.00 0.00 0.00 39 1016.8
20260508164604 16 78 9.7 17.7 0.00 0.00 0.00 38 1016.8
20260508164504 16 81 9.7 17.7 0.00 0.00 0.00 38 1016.7
20260508164403 16 85 9.7 17.7 0.00 0.00 0.00 38 1016.8
20260508164304 16 82 9.7 19.3 0.00 0.00 0.00 38 1016.8
20260508164203 16 81 9.7 19.3 0.00 0.00 0.00 38 1016.8
20260508164103 16 82 9.7 19.3 0.00 0.00 0.00 37 1016.7
20260508164003 16 85 9.7 19.3 0.00 0.00 0.00 38 1016.8
20260508163903 16 88 9.7 19.3 0.00 0.00 0.00 37 1016.7
20260508163803 16 85 9.7 19.3 0.00 0.00 0.00 37 1016.7
20260508163703 16 82 9.7 19.3 0.00 0.00 0.00 38 1016.7
20260508163604 16 81 9.7 19.3 0.00 0.00 0.00 38 1016.6
20260508163503 16 79 9.7 19.3 0.00 0.00 0.00 37 1016.7
20260508163403 16 74 9.7 19.3 0.00 0.00 0.00 37 1016.7
20260508163303 16 74 9.7 17.7 0.00 0.00 0.00 38 1016.7
20260508163203 16 75 9.7 17.7 0.00 0.00 0.00 38 1016.8
20260508163003 16 80 9.7 19.3 0.00 0.00 0.00 40 1016.8
20260508162903 16 81 9.7 19.3 0.00 0.00 0.00 40 1016.8
20260508162804 16 84 9.7 19.3 0.00 0.00 0.00 40 1016.8
20260508162704 16 85 9.7 19.3 0.00 0.00 0.00 39 1016.8
20260508162603 16 85 9.7 19.3 0.00 0.00 0.00 39 1016.8
20260508162503 16 86 9.7 19.3 0.00 0.00 0.00 38 1016.8
20260508162403 16 89 9.7 19.3 0.00 0.00 0.00 41 1016.9
20260508162306 16 87 8.0 19.3 0.00 0.00 0.00 40 1016.9
20260508162204 16 87 8.0 19.3 0.00 0.00 0.00 40 1016.8
20260508162003 16 85 8.0 17.7 0.00 0.00 0.00 39 1016.8
20260508161903 16 83 8.0 17.7 0.00 0.00 0.00 41 1016.9
20260508161804 16 83 8.0 16.1 0.00 0.00 0.00 39 1016.8
20260508161703 15 85 8.0 16.1 0.00 0.00 0.00 39 1016.8
20260508161603 15 84 8.0 16.1 0.00 0.00 0.00 39 1016.7
20260508161403 15 82 8.0 16.1 0.00 0.00 0.00 38 1016.7
20260508161303 15 86 8.0 14.5 0.00 0.00 0.00 39 1016.8
20260508161204 15 87 8.0 14.5 0.00 0.00 0.00 39 1016.8
20260508161103 15 85 8.0 14.5 0.00 0.00 0.00 40 1016.7
20260508161003 15 85 8.0 14.5 0.00 0.00 0.00 39 1016.7
20260508160904 15 84 8.0 14.5 0.00 0.00 0.00 40 1016.7
20260508160803 15 82 8.0 14.5 0.00 0.00 0.00 40 1016.7
20260508160703 15 83 8.0 14.5 0.00 0.00 0.00 39 1016.7
20260508160604 15 85 8.0 14.5 0.00 0.00 0.00 42 1016.8
20260508160503 15 87 8.0 14.5 0.00 0.00 0.00 41 1016.8
20260508160403 15 87 8.0 12.9 0.00 0.00 0.00 43 1016.8
20260508160303 15 88 8.0 12.9 0.00 0.00 0.00 42 1016.8
20260508160203 15 89 8.0 12.9 0.00 0.00 0.00 43 1016.8
20260508160103 15 90 8.0 12.9 0.00 0.00 0.00 42 1016.8
20260508160003 15 90 6.4 12.9 0.00 0.00 0.00 42 1016.8
20260508155904 15 90 6.4 12.9 0.00 0.00 0.00 42 1016.8
20260508155803 15 91 6.4 12.9 0.00 0.00 0.00 42 1016.8
20260508155703 15 92 6.4 12.9 0.00 0.00 0.00 42 1016.8
20260508155603 15 92 8.0 12.9 0.00 0.00 0.00 43 1016.8
20260508155503 15 90 8.0 12.9 0.00 0.00 0.00 42 1016.8
20260508155403 15 89 8.0 12.9 0.00 0.00 0.00 42 1016.8
20260508155306 15 85 8.0 12.9 0.00 0.00 0.00 44 1016.9
20260508155203 15 82 8.0 12.9 0.00 0.00 0.00 44 1016.9
20260508155104 15 82 8.0 16.1 0.00 0.00 0.00 45 1016.8
20260508155003 15 82 9.7 16.1 0.00 0.00 0.00 45 1016.9
20260508154903 15 83 8.0 16.1 0.00 0.00 0.00 45 1016.9
20260508154803 15 82 8.0 16.1 0.00 0.00 0.00 45 1017.0
20260508154703 15 82 8.0 17.7 0.00 0.00 0.00 45 1017.0
20260508154603 15 82 8.0 17.7 0.00 0.00 0.00 46 1016.9
20260508154503 15 83 6.4 17.7 0.00 0.00 0.00 46 1016.9
20260508154403 15 83 6.4 17.7 0.00 0.00 0.00 45 1016.9
20260508154303 15 84 4.8 17.7 0.00 0.00 0.00 45 1016.9
20260508154203 15 84 4.8 17.7 0.00 0.00 0.00 44 1016.9
20260508154103 15 85 4.8 17.7 0.00 0.00 0.00 43 1016.9
20260508154003 15 83 3.2 17.7 0.00 0.00 0.00 43 1016.9
20260508153903 15 81 3.2 17.7 0.00 0.00 0.00 43 1016.9
20260508153803 15 81 3.2 17.7 0.00 0.00 0.00 43 1016.9
20260508153703 15 78 1.6 14.5 0.00 0.00 0.00 42 1016.8
20260508153603 15 74 1.6 11.3 0.00 0.00 0.00 42 1016.8
20260508153503 15 71 1.6 11.3 0.00 0.00 0.00 43 1017.0
20260508153403 15 65 1.6 11.3 0.00 0.00 0.00 44 1017.0
20260508153303 15 56 1.6 9.7 0.00 0.00 0.00 42 1017.0
20260508153203 15 50 1.6 9.7 0.00 0.00 0.00 41 1017.0
20260508153003 15 36 1.6 8.0 0.00 0.00 0.00 42 1017.0
20260508152803 15 41 1.6 8.0 0.00 0.00 0.00 41 1016.9
20260508152703 15 41 1.6 8.0 0.00 0.00 0.00 41 1016.9
20260508152603 15 40 1.6 8.0 0.00 0.00 0.00 41 1016.9
20260508152503 15 36 1.6 8.0 0.00 0.00 0.00 41 1017.0
20260508152403 15 23 1.6 3.2 0.00 0.00 0.00 43 1017.1
20260508152306 15 36 1.6 3.2 0.00 0.00 0.00 43 1017.1
20260508152203 15 42 1.6 3.2 0.00 0.00 0.00 43 1017.1
20260508152103 15 49 1.6 3.2 0.00 0.00 0.00 44 1017.2
20260508152003 15 64 1.6 6.4 0.00 0.00 0.00 43 1017.2
20260508151903 15 63 1.6 6.4 0.00 0.00 0.00 44 1017.2
20260508151803 15 53 1.6 6.4 0.00 0.00 0.00 45 1017.3
20260508151703 14 53 1.6 6.4 0.00 0.00 0.00 45 1016.9
20260508151403 13 37 0.0 6.4 0.00 0.00 0.00 45 1016.8
20260508151303 13 22 0.0 6.4 0.00 0.00 0.00 45 1016.8
20260508151203 13 18 0.0 6.4 0.00 0.00 0.00 45 1016.8
20260508151103 13 10 0.0 6.4 0.00 0.00 0.00 45 1016.8
20260508151003 13 337 0.0 6.4 0.00 0.00 0.00 45 1016.8
20260508150904 13 311 0.0 6.4 0.00 0.00 0.00 45 1016.8
20260508150803 13 0 0.0 3.2 0.00 0.00 0.00 45 1016.7
20260508150603 13 0 0.0 3.2 0.00 0.00 0.00 46 1016.8
20260508150503 13 0 0.0 3.2 0.00 0.00 0.00 45 1016.7
20260508150403 13 266 0.0 3.2 0.00 0.00 0.00 46 1016.8
20260508150304 13 0 0.0 0.0 0.00 0.00 0.00 47 1016.8
20260508150204 13 210 0.0 1.6 0.00 0.00 0.00 46 1016.8
20260508150003 13 236 1.6 6.4 0.00 0.00 0.00 45 1016.8
20260508145903 13 236 1.6 6.4 0.00 0.00 0.00 45 1016.8
20260508145803 13 236 1.6 6.4 0.00 0.00 0.00 46 1016.7
20260508145703 13 236 1.6 6.4 0.00 0.00 0.00 48 1016.8
20260508145604 12 236 1.6 6.4 0.00 0.00 0.00 48 1016.8
20260508145503 12 209 1.6 6.4 0.00 0.00 0.00 47 1016.7
20260508145403 12 174 1.6 6.4 0.00 0.00 0.00 48 1016.7
20260508145306 12 167 1.6 6.4 0.00 0.00 0.00 49 1016.8
20260508145203 12 155 1.6 6.4 0.00 0.00 0.00 48 1016.8
20260508145103 12 130 1.6 6.4 0.00 0.00 0.00 48 1016.8
20260508145004 12 107 1.6 3.2 0.00 0.00 0.00 49 1016.8
20260508144903 12 108 1.6 4.8 0.00 0.00 0.00 49 1016.9
20260508144803 12 109 1.6 4.8 0.00 0.00 0.00 51 1016.9
20260508144703 12 109 1.6 4.8 0.00 0.00 0.00 50 1016.9
20260508144603 12 108 1.6 4.8 0.00 0.00 0.00 50 1016.9
20260508144403 12 101 1.6 4.8 0.00 0.00 0.00 51 1016.9
20260508144303 12 97 1.6 4.8 0.00 0.00 0.00 51 1016.9
20260508144204 11 98 1.6 4.8 0.00 0.00 0.00 51 1016.8
20260508144103 11 97 1.6 6.4 0.00 0.00 0.00 51 1016.8
20260508144003 11 95 1.6 6.4 0.00 0.00 0.00 51 1016.8
20260508143903 11 90 1.6 6.4 0.00 0.00 0.00 52 1016.9
20260508143803 11 90 1.6 6.4 0.00 0.00 0.00 51 1016.9
20260508143703 11 90 1.6 6.4 0.00 0.00 0.00 51 1016.9
20260508143603 11 90 1.6 6.4 0.00 0.00 0.00 52 1016.9
20260508143503 11 90 1.6 6.4 0.00 0.00 0.00 51 1016.9
20260508143403 11 90 1.6 6.4 0.00 0.00 0.00 51 1016.9
20260508143303 11 90 0.0 6.4 0.00 0.00 0.00 51 1016.9
20260508143103 11 90 1.6 6.4 0.00 0.00 0.00 50 1016.9
20260508143003 11 89 1.6 6.4 0.00 0.00 0.00 50 1017.0
20260508142903 11 91 1.6 6.4 0.00 0.00 0.00 50 1016.9
20260508142803 11 92 1.6 3.2 0.00 0.00 0.00 51 1016.9
20260508142703 11 135 3.2 1.6 0.00 0.00 0.00 52 1016.9
20260508142603 11 150 3.2 3.2 0.00 0.00 0.00 52 1016.9
20260508142504 11 148 3.2 3.2 0.00 0.00 0.00 50 1016.9
20260508142403 11 146 4.8 6.4 0.00 0.00 0.00 50 1016.9
20260508142306 11 143 4.8 8.0 0.00 0.00 0.00 50 1016.9
20260508142203 11 147 4.8 8.0 0.00 0.00 0.00 50 1017.0
20260508142104 11 148 6.4 8.0 0.00 0.00 0.00 52 1016.9
20260508142003 11 148 6.4 8.0 0.00 0.00 0.00 51 1016.9
20260508141903 11 146 6.4 8.0 0.00 0.00 0.00 52 1016.9
20260508141804 11 143 8.0 8.0 0.00 0.00 0.00 52 1016.9
20260508141703 11 141 8.0 8.0 0.00 0.00 0.00 52 1016.9
20260508141503 11 129 9.7 9.7 0.00 0.00 0.00 52 1016.9
20260508141404 11 120 9.7 12.9 0.00 0.00 0.00 52 1016.9
20260508141303 11 110 9.7 16.1 0.00 0.00 0.00 52 1016.9
20260508141203 11 100 9.7 16.1 0.00 0.00 0.00 52 1017.0
20260508141103 11 94 9.7 16.1 0.00 0.00 0.00 53 1017.0
20260508141003 11 91 8.0 16.1 0.00 0.00 0.00 52 1016.9
20260508140904 11 90 8.0 16.1 0.00 0.00 0.00 53 1017.0
20260508140803 11 89 6.4 16.1 0.00 0.00 0.00 53 1017.0
20260508140603 11 87 4.8 16.1 0.00 0.00 0.00 51 1016.9
20260508140503 12 88 3.2 16.1 0.00 0.00 0.00 51 1017.0
20260508140403 12 88 3.2 16.1 0.00 0.00 0.00 49 1016.9
20260508140304 12 89 1.6 16.1 0.00 0.00 0.00 50 1016.9
20260508140203 12 90 1.6 16.1 0.00 0.00 0.00 51 1016.9
20260508140103 12 90 1.6 16.1 0.00 0.00 0.00 47 1016.8
20260508140003 12 92 0.0 16.1 0.00 0.00 0.00 47 1016.8
20260508135803 13 0 0.0 12.9 0.00 0.00 0.00 48 1016.4
20260508135603 13 0 0.0 1.6 0.00 0.00 0.00 48 1016.5
20260508135504 13 0 0.0 1.6 0.00 0.00 0.00 47 1016.5
20260508135403 13 0 0.0 0.0 0.00 0.00 0.00 47 1016.5
20260508135306 13 0 0.0 0.0 0.00 0.00 0.00 48 1016.5
20260508135203 13 0 0.0 0.0 0.00 0.00 0.00 48 1016.5
20260508135104 13 0 0.0 0.0 0.00 0.00 0.00 48 1016.4
20260508135003 13 0 0.0 0.0 0.00 0.00 0.00 48 1016.5
20260508134903 13 0 0.0 0.0 0.00 0.00 0.00 50 1016.4
20260508134804 13 0 0.0 0.0 0.00 0.00 0.00 51 1016.4
20260508134703 13 0 0.0 0.0 0.00 0.00 0.00 48 1016.4
20260508134603 13 0 0.0 0.0 0.00 0.00 0.00 47 1016.3
20260508134503 13 0 0.0 0.0 0.00 0.00 0.00 50 1016.4
20260508134404 13 0 0.0 1.6 0.00 0.00 0.00 50 1016.4
20260508134303 13 0 0.0 1.6 0.00 0.00 0.00 51 1016.4
20260508134203 13 0 0.0 1.6 0.00 0.00 0.00 51 1016.4
20260508134103 12 0 0.0 1.6 0.00 0.00 0.00 51 1016.4
20260508134004 12 0 0.0 1.6 0.00 0.00 0.00 51 1016.4
20260508133903 12 0 0.0 1.6 0.00 0.00 0.00 51 1016.4
20260508133803 12 0 0.0 1.6 0.00 0.00 0.00 54 1016.4
20260508133703 12 0 0.0 1.6 0.00 0.00 0.00 54 1016.3
20260508133603 12 0 0.0 1.6 0.00 0.00 0.00 53 1016.4
20260508133503 12 0 0.0 1.6 0.00 0.00 0.00 54 1016.4
20260508133403 12 0 0.0 0.0 0.00 0.00 0.00 54 1016.5
20260508133303 11 0 0.0 0.0 0.00 0.00 0.00 54 1016.4
20260508133203 11 0 0.0 0.0 0.00 0.00 0.00 55 1016.4
20260508133103 11 0 0.0 0.0 0.00 0.00 0.00 56 1016.5
20260508133003 11 0 0.0 0.0 0.00 0.00 0.00 56 1016.5
20260508132803 11 0 0.0 0.0 0.00 0.00 0.00 59 1016.4
20260508132703 11 0 0.0 0.0 0.00 0.00 0.00 56 1016.4
20260508132603 11 0 0.0 0.0 0.00 0.00 0.00 54 1016.3
20260508132503 11 0 0.0 0.0 0.00 0.00 0.00 55 1016.3
20260508132403 11 0 0.0 0.0 0.00 0.00 0.00 56 1016.4
20260508132306 11 0 0.0 0.0 0.00 0.00 0.00 59 1016.4
20260508132203 11 273 0.0 1.6 0.00 0.00 0.00 58 1016.5
20260508132104 10 273 0.0 1.6 0.00 0.00 0.00 59 1016.5
20260508132003 10 273 0.0 1.6 0.00 0.00 0.00 56 1016.3
20260508131903 10 273 0.0 1.6 0.00 0.00 0.00 56 1016.3
20260508131804 10 273 1.6 1.6 0.00 0.00 0.00 56 1016.3
20260508131703 10 273 1.6 1.6 0.00 0.00 0.00 57 1016.4
20260508131603 10 273 1.6 1.6 0.00 0.00 0.00 55 1016.3
20260508131503 10 273 1.6 1.6 0.00 0.00 0.00 57 1016.3
20260508131404 10 271 1.6 3.2 0.00 0.00 0.00 58 1016.5
20260508131303 10 270 1.6 3.2 0.00 0.00 0.00 55 1016.4
20260508131203 10 269 1.6 3.2 0.00 0.00 0.00 53 1016.5
20260508131103 10 269 1.6 3.2 0.00 0.00 0.00 55 1016.5
20260508131003 10 265 1.6 3.2 0.00 0.00 0.00 52 1016.4
20260508130903 9 255 1.6 3.2 0.00 0.00 0.00 53 1016.5
20260508130803 9 245 1.6 6.4 0.00 0.00 0.00 57 1016.4
20260508130703 9 240 3.2 6.4 0.00 0.00 0.00 58 1016.5
20260508130603 9 236 3.2 6.4 0.00 0.00 0.00 58 1016.4
20260508130503 9 233 3.2 6.4 0.00 0.00 0.00 58 1016.5
20260508130403 9 230 3.2 6.4 0.00 0.00 0.00 58 1016.5
20260508130303 9 225 3.2 6.4 0.00 0.00 0.00 59 1016.4
20260508130204 9 227 3.2 6.4 0.00 0.00 0.00 60 1016.4
20260508130103 9 228 3.2 6.4 0.00 0.00 0.00 59 1016.4
20260508130004 9 228 3.2 6.4 0.00 0.00 0.00 58 1016.4
20260508125903 8 227 3.2 6.4 0.00 0.00 0.00 57 1016.0
20260508125803 8 227 3.2 6.4 0.00 0.00 0.00 57 1016.1
20260508125703 8 228 3.2 6.4 0.00 0.00 0.00 58 1016.1
20260508125603 8 228 3.2 6.4 0.00 0.00 0.00 57 1016.1
20260508125503 8 231 3.2 6.4 0.00 0.00 0.00 56 1016.1
20260508125305 8 235 3.2 6.4 0.00 0.00 0.00 58 1016.0
20260508125103 8 240 3.2 6.4 0.00 0.00 0.00 58 1016.0
20260508124904 8 258 3.2 6.4 0.00 0.00 0.00 58 1016.1
20260508124803 8 268 3.2 6.4 0.00 0.00 0.00 56 1016.1
20260508124703 8 272 1.6 6.4 0.00 0.00 0.00 56 1016.1
20260508124603 8 273 1.6 6.4 0.00 0.00 0.00 56 1016.0
20260508124504 8 274 1.6 6.4 0.00 0.00 0.00 56 1016.1
20260508124403 8 277 1.6 6.4 0.00 0.00 0.00 55 1016.1
20260508124303 8 282 1.6 6.4 0.00 0.00 0.00 54 1015.9
20260508124103 8 302 1.6 6.4 0.00 0.00 0.00 54 1015.9
20260508124003 8 310 1.6 6.4 0.00 0.00 0.00 55 1016.0
20260508123903 8 311 1.6 6.4 0.00 0.00 0.00 55 1016.0
20260508123804 8 307 1.6 6.4 0.00 0.00 0.00 55 1016.0
20260508123703 8 305 1.6 6.4 0.00 0.00 0.00 55 1015.8
20260508123603 8 303 3.2 6.4 0.00 0.00 0.00 55 1015.8
20260508123503 8 306 3.2 6.4 0.00 0.00 0.00 56 1015.8
20260508123303 8 298 3.2 6.4 0.00 0.00 0.00 57 1015.7
20260508123203 8 290 4.8 6.4 0.00 0.00 0.00 58 1015.8
20260508123103 8 277 4.8 8.0 0.00 0.00 0.00 57 1015.8
20260508122903 8 273 4.8 8.0 0.00 0.00 0.00 57 1015.8
20260508122803 8 273 4.8 8.0 0.00 0.00 0.00 58 1015.8
20260508122704 8 272 4.8 8.0 0.00 0.00 0.00 58 1015.7
20260508122603 7 270 3.2 8.0 0.00 0.00 0.00 58 1015.7
20260508122503 7 268 3.2 8.0 0.00 0.00 0.00 58 1015.7
20260508122306 7 266 3.2 8.0 0.00 0.00 0.00 59 1015.7
20260508122203 7 267 3.2 8.0 0.00 0.00 0.00 59 1015.6
20260508122103 7 267 3.2 8.0 0.00 0.00 0.00 60 1015.7
20260508122003 7 267 3.2 8.0 0.00 0.00 0.00 60 1015.6
20260508121903 7 267 3.2 8.0 0.00 0.00 0.00 60 1015.7
20260508121803 7 267 3.2 8.0 0.00 0.00 0.00 60 1015.7
20260508121704 7 268 3.2 8.0 0.00 0.00 0.00 60 1015.6
20260508121603 7 271 3.2 8.0 0.00 0.00 0.00 60 1015.6
20260508121503 7 274 3.2 8.0 0.00 0.00 0.00 60 1015.6
20260508121403 7 279 3.2 8.0 0.00 0.00 0.00 59 1015.7
20260508121303 7 281 3.2 4.8 0.00 0.00 0.00 59 1015.6
20260508121203 7 272 4.8 4.8 0.00 0.00 0.00 59 1015.6
20260508121103 7 263 4.8 6.4 0.00 0.00 0.00 59 1015.6
20260508121004 7 252 4.8 9.7 0.00 0.00 0.00 60 1015.6
20260508120903 7 244 4.8 9.7 0.00 0.00 0.00 60 1015.6
20260508120803 7 241 6.4 9.7 0.00 0.00 0.00 60 1015.6
20260508120703 7 238 6.4 9.7 0.00 0.00 0.00 60 1015.5
20260508120603 7 237 6.4 9.7 0.00 0.00 0.00 61 1015.5
20260508120503 7 239 6.4 9.7 0.00 0.00 0.00 61 1015.6
20260508120403 7 242 6.4 9.7 0.00 0.00 0.00 61 1015.6
20260508120304 7 245 4.8 9.7 0.00 0.00 0.00 61 1015.6
20260508120203 7 248 4.8 9.7 0.00 0.00 0.00 61 1015.6
20260508120103 7 250 4.8 9.7 0.00 0.00 0.00 61 1015.6
20260508120003 7 256 4.8 9.7 0.00 0.00 0.00 60 1015.5
20260508115903 7 263 4.8 9.7 0.00 0.00 0.00 60 1015.5
20260508115803 7 270 3.2 9.7 0.00 0.00 0.00 59 1015.5
20260508115603 7 280 3.2 9.7 0.00 0.00 0.00 60 1015.6
20260508115504 7 283 3.2 9.7 0.00 0.00 0.00 60 1015.6
20260508115403 7 285 3.2 8.0 0.00 0.00 0.00 60 1015.7
20260508115306 7 284 3.2 8.0 0.00 0.00 0.00 60 1015.6
20260508115204 7 283 3.2 8.0 0.00 0.00 0.00 59 1015.6
20260508115003 7 276 3.2 8.0 0.00 0.00 0.00 59 1015.6
20260508114804 7 266 3.2 8.0 0.00 0.00 0.00 59 1015.5
20260508114703 7 266 3.2 8.0 0.00 0.00 0.00 60 1015.5
20260508114503 7 275 3.2 6.4 0.00 0.00 0.00 60 1015.5
20260508114404 7 278 3.2 6.4 0.00 0.00 0.00 60 1015.5
20260508114303 7 280 3.2 6.4 0.00 0.00 0.00 60 1015.5
20260508114203 7 282 3.2 6.4 0.00 0.00 0.00 61 1015.5
20260508114103 7 281 4.8 6.4 0.00 0.00 0.00 61 1015.5
20260508114003 7 281 4.8 6.4 0.00 0.00 0.00 60 1015.5
20260508113903 7 274 4.8 6.4 0.00 0.00 0.00 60 1015.6
20260508113803 7 266 4.8 8.0 0.00 0.00 0.00 60 1015.5
20260508113603 7 259 6.4 8.0 0.00 0.00 0.00 61 1015.5
20260508113403 7 261 6.4 12.9 0.00 0.00 0.00 61 1015.5
20260508113303 7 263 6.4 12.9 0.00 0.00 0.00 61 1015.4
20260508113203 7 266 6.4 12.9 0.00 0.00 0.00 61 1015.4
20260508113103 7 269 6.4 12.9 0.00 0.00 0.00 61 1015.4
20260508113004 7 271 6.4 12.9 0.00 0.00 0.00 61 1015.4
20260508112903 7 277 4.8 12.9 0.00 0.00 0.00 61 1015.4
20260508112803 7 284 4.8 12.9 0.00 0.00 0.00 61 1015.5
20260508112703 7 288 4.8 12.9 0.00 0.00 0.00 62 1015.5
20260508112603 7 289 4.8 12.9 0.00 0.00 0.00 62 1015.5
20260508112503 6 290 4.8 12.9 0.00 0.00 0.00 62 1015.5
20260508112404 6 293 4.8 8.0 0.00 0.00 0.00 62 1015.5
20260508112306 7 292 6.4 8.0 0.00 0.00 0.00 61 1015.5
20260508112203 7 290 6.4 8.0 0.00 0.00 0.00 61 1015.6
20260508112104 7 287 6.4 8.0 0.00 0.00 0.00 60 1015.5
20260508112003 7 280 6.4 9.7 0.00 0.00 0.00 59 1015.5
20260508111903 7 271 6.4 11.3 0.00 0.00 0.00 59 1015.5
20260508111803 7 262 6.4 14.5 0.00 0.00 0.00 59 1015.5
20260508111703 7 251 6.4 14.5 0.00 0.00 0.00 59 1015.4
20260508111503 7 247 6.4 14.5 0.00 0.00 0.00 59 1015.4
20260508111403 7 246 6.4 14.5 0.00 0.00 0.00 59 1015.4
20260508111303 7 246 6.4 14.5 0.00 0.00 0.00 59 1015.4
20260508111103 7 248 4.8 14.5 0.00 0.00 0.00 59 1015.4
20260508111003 7 249 4.8 14.5 0.00 0.00 0.00 58 1015.4
20260508110904 7 250 4.8 14.5 0.00 0.00 0.00 58 1015.6
20260508110803 7 253 3.2 12.9 0.00 0.00 0.00 59 1015.6
20260508110703 8 258 3.2 9.7 0.00 0.00 0.00 58 1015.5
20260508110604 8 265 3.2 9.7 0.00 0.00 0.00 58 1015.5
20260508110503 8 270 3.2 9.7 0.00 0.00 0.00 58 1015.6
20260508110403 7 274 3.2 9.7 0.00 0.00 0.00 58 1015.6
20260508110304 7 279 3.2 8.0 0.00 0.00 0.00 58 1015.5
20260508110203 7 285 3.2 6.4 0.00 0.00 0.00 58 1015.5
20260508110004 7 288 4.8 6.4 0.00 0.00 0.00 58 1015.5
20260508105903 7 277 4.8 11.3 0.00 0.00 0.00 58 1015.5
20260508105803 7 266 4.8 11.3 0.00 0.00 0.00 58 1015.4
20260508105703 7 257 4.8 11.3 0.00 0.00 0.00 58 1015.4
20260508105603 8 252 4.8 11.3 0.00 0.00 0.00 58 1015.4
20260508105504 8 251 4.8 11.3 0.00 0.00 0.00 58 1015.4
20260508105403 8 252 4.8 11.3 0.00 0.00 0.00 58 1015.4
20260508105306 8 254 4.8 11.3 0.00 0.00 0.00 59 1015.6
20260508105203 8 255 4.8 11.3 0.00 0.00 0.00 58 1015.5
20260508105104 8 256 4.8 11.3 0.00 0.00 0.00 58 1015.6
20260508105003 8 256 4.8 11.3 0.00 0.00 0.00 58 1015.6
20260508104903 8 256 3.2 11.3 0.00 0.00 0.00 58 1015.7
20260508104803 8 259 3.2 11.3 0.00 0.00 0.00 56 1015.6
20260508104703 8 262 3.2 11.3 0.00 0.00 0.00 56 1015.7
20260508104603 8 264 3.2 11.3 0.00 0.00 0.00 56 1015.7
20260508104503 8 265 3.2 11.3 0.00 0.00 0.00 56 1015.7
20260508104404 8 266 4.8 6.4 0.00 0.00 0.00 56 1015.6
20260508104303 8 265 4.8 6.4 0.00 0.00 0.00 56 1015.5
20260508104203 8 262 4.8 6.4 0.00 0.00 0.00 57 1015.6
20260508104103 8 259 4.8 6.4 0.00 0.00 0.00 57 1015.6
20260508104004 8 255 4.8 8.0 0.00 0.00 0.00 57 1015.6
20260508103903 8 252 6.4 8.0 0.00 0.00 0.00 57 1015.5
20260508103803 8 251 6.4 9.7 0.00 0.00 0.00 58 1015.6
20260508103703 8 249 6.4 11.3 0.00 0.00 0.00 58 1015.6
20260508103603 8 247 6.4 11.3 0.00 0.00 0.00 57 1015.5
20260508103503 8 244 6.4 11.3 0.00 0.00 0.00 57 1015.5
20260508103303 8 242 4.8 11.3 0.00 0.00 0.00 56 1015.5
20260508103103 8 243 4.8 11.3 0.00 0.00 0.00 56 1015.5
20260508103003 8 245 4.8 11.3 0.00 0.00 0.00 57 1015.5
20260508102904 8 247 4.8 11.3 0.00 0.00 0.00 57 1015.5
20260508102803 8 249 4.8 11.3 0.00 0.00 0.00 57 1015.5
20260508102703 8 253 6.4 11.3 0.00 0.00 0.00 57 1015.5
20260508102504 8 262 6.4 8.0 0.00 0.00 0.00 55 1015.4
20260508102403 8 262 6.4 8.0 0.00 0.00 0.00 56 1015.5
20260508102306 8 260 6.4 8.0 0.00 0.00 0.00 56 1015.5
20260508102204 8 257 6.4 9.7 0.00 0.00 0.00 55 1015.4
20260508102103 8 255 6.4 9.7 0.00 0.00 0.00 56 1015.5
20260508102003 8 253 4.8 9.7 0.00 0.00 0.00 56 1015.5
20260508101904 8 250 4.8 11.3 0.00 0.00 0.00 56 1015.6
20260508101803 8 246 4.8 11.3 0.00 0.00 0.00 56 1015.6
20260508101703 8 243 4.8 11.3 0.00 0.00 0.00 56 1015.6
20260508101604 8 241 3.2 11.3 0.00 0.00 0.00 56 1015.6
20260508101503 8 240 3.2 11.3 0.00 0.00 0.00 56 1015.6
20260508101403 8 240 3.2 11.3 0.00 0.00 0.00 56 1015.6
20260508101303 8 239 3.2 11.3 0.00 0.00 0.00 56 1015.6
20260508101203 8 239 3.2 11.3 0.00 0.00 0.00 56 1015.5
20260508101103 8 238 1.6 11.3 0.00 0.00 0.00 57 1015.6
20260508101003 8 237 1.6 11.3 0.00 0.00 0.00 57 1015.6
20260508100803 8 237 1.6 8.0 0.00 0.00 0.00 56 1015.6
20260508100703 8 239 1.6 4.8 0.00 0.00 0.00 56 1015.6
20260508100603 8 243 1.6 3.2 0.00 0.00 0.00 56 1015.5
20260508100504 8 246 1.6 3.2 0.00 0.00 0.00 56 1015.5
20260508100403 8 249 3.2 3.2 0.00 0.00 0.00 56 1015.5
20260508100303 8 255 3.2 6.4 0.00 0.00 0.00 56 1015.5
20260508100204 8 259 3.2 6.4 0.00 0.00 0.00 56 1015.4
20260508100003 8 272 3.2 6.4 0.00 0.00 0.00 57 1015.4
20260508095903 8 277 3.2 6.4 0.00 0.00 0.00 57 1015.4
20260508095803 8 279 3.2 6.4 0.00 0.00 0.00 57 1015.4
20260508095703 8 278 1.6 6.4 0.00 0.00 0.00 57 1015.4
20260508095603 8 275 1.6 6.4 0.00 0.00 0.00 57 1015.4
20260508095504 8 273 1.6 6.4 0.00 0.00 0.00 57 1015.4
20260508095403 8 272 1.6 6.4 0.00 0.00 0.00 57 1015.4
20260508095306 8 270 1.6 6.4 0.00 0.00 0.00 57 1015.4
20260508095203 8 270 0.0 6.4 0.00 0.00 0.00 57 1015.3
20260508095103 8 266 0.0 6.4 0.00 0.00 0.00 57 1015.4
20260508095003 8 261 0.0 6.4 0.00 0.00 0.00 57 1015.4
20260508094904 8 255 0.0 6.4 0.00 0.00 0.00 58 1015.3
20260508094803 8 248 0.0 3.2 0.00 0.00 0.00 58 1015.4
20260508094603 8 0 0.0 3.2 0.00 0.00 0.00 58 1015.5
20260508094503 8 0 0.0 3.2 0.00 0.00 0.00 57 1015.4
20260508094404 8 0 0.0 3.2 0.00 0.00 0.00 57 1015.4
20260508094304 9 0 0.0 0.0 0.00 0.00 0.00 54 1015.4
20260508094203 9 0 0.0 0.0 0.00 0.00 0.00 54 1015.4
20260508094103 9 0 0.0 0.0 0.00 0.00 0.00 53 1015.4
20260508093803 9 0 0.0 0.0 0.00 0.00 0.00 53 1015.5
20260508093703 9 0 0.0 0.0 0.00 0.00 0.00 53 1015.4
20260508093603 9 0 0.0 0.0 0.00 0.00 0.00 52 1015.4
20260508093504 10 0 0.0 0.0 0.00 0.00 0.00 52 1015.3
20260508093403 10 0 0.0 0.0 0.00 0.00 0.00 52 1015.5
20260508093303 10 0 0.0 0.0 0.00 0.00 0.00 52 1015.4
20260508093203 10 0 0.0 0.0 0.00 0.00 0.00 52 1015.5
20260508093103 10 0 0.0 0.0 0.00 0.00 0.00 52 1015.5
20260508093003 10 0 0.0 0.0 0.00 0.00 0.00 53 1015.6
20260508092903 10 0 0.0 0.0 0.00 0.00 0.00 52 1015.6
20260508092804 10 0 0.0 0.0 0.00 0.00 0.00 52 1015.6
20260508092703 10 0 0.0 0.0 0.00 0.00 0.00 53 1015.7
20260508092603 9 0 0.0 0.0 0.00 0.00 0.00 53 1015.6
20260508092503 9 0 0.0 0.0 0.00 0.00 0.00 53 1015.6
20260508092404 9 0 0.0 0.0 0.00 0.00 0.00 53 1015.6
20260508092312 9 0 0.0 0.0 0.00 0.00 0.00 53 1015.6
20260508092203 9 0 0.0 0.0 0.00 0.00 0.00 53 1015.5
20260508092103 9 0 0.0 0.0 0.00 0.00 0.00 53 1015.5
20260508092004 9 0 0.0 0.0 0.00 0.00 0.00 53 1015.5
20260508091903 9 0 0.0 0.0 0.00 0.00 0.00 53 1015.6
20260508091603 10 0 0.0 0.0 0.00 0.00 0.00 52 1015.6
20260508091503 10 0 0.0 0.0 0.00 0.00 0.00 52 1015.7
20260508091403 10 0 0.0 0.0 0.00 0.00 0.00 52 1015.7
20260508091303 10 0 0.0 0.0 0.00 0.00 0.00 52 1015.7
20260508091203 10 0 0.0 0.0 0.00 0.00 0.00 52 1015.7
20260508091104 10 0 0.0 0.0 0.00 0.00 0.00 52 1015.7
20260508091003 10 0 0.0 0.0 0.00 0.00 0.00 52 1015.7
20260508090903 10 0 0.0 0.0 0.00 0.00 0.00 52 1015.8
20260508090804 10 0 0.0 0.0 0.00 0.00 0.00 52 1015.8
20260508090703 10 0 0.0 0.0 0.00 0.00 0.00 52 1015.8
20260508090603 10 0 0.0 0.0 0.00 0.00 0.00 51 1015.8
20260508090503 10 0 0.0 0.0 0.00 0.00 0.00 52 1015.8
20260508090403 10 0 0.0 0.0 0.00 0.00 0.00 52 1015.7
20260508090303 10 0 0.0 0.0 0.00 0.00 0.00 52 1015.8
20260508090203 9 0 0.0 0.0 0.00 0.00 0.00 52 1015.7
20260508090104 9 0 0.0 0.0 0.00 0.00 0.00 52 1015.7
20260508090004 9 0 0.0 0.0 0.00 0.00 0.00 52 1015.3
20260508085903 9 0 0.0 0.0 0.00 0.00 0.00 52 1015.2
20260508085803 8 0 0.0 0.0 0.00 0.00 0.00 53 1015.4
20260508085704 8 0 0.0 0.0 0.00 0.00 0.00 53 1015.4
20260508085603 8 0 0.0 0.0 0.00 0.00 0.00 53 1015.3
20260508085503 8 0 0.0 0.0 0.00 0.00 0.00 53 1015.3
20260508085403 8 0 0.0 0.0 0.00 0.00 0.00 53 1015.4
20260508085306 9 0 0.0 0.0 0.00 0.00 0.00 53 1015.4
20260508085203 9 0 0.0 0.0 0.00 0.00 0.00 52 1015.4
20260508085103 9 0 0.0 0.0 0.00 0.00 0.00 52 1015.4
20260508085004 9 0 0.0 0.0 0.00 0.00 0.00 52 1015.4
20260508084903 10 0 0.0 0.0 0.00 0.00 0.00 51 1015.4
20260508084803 10 0 0.0 0.0 0.00 0.00 0.00 50 1015.4
20260508084703 10 0 0.0 0.0 0.00 0.00 0.00 50 1015.4
20260508084503 10 0 0.0 0.0 0.00 0.00 0.00 49 1015.4
20260508084403 11 0 0.0 0.0 0.00 0.00 0.00 48 1015.4
20260508084303 11 0 0.0 0.0 0.00 0.00 0.00 48 1015.4
20260508084204 11 0 0.0 0.0 0.00 0.00 0.00 48 1015.4
20260508084103 11 0 0.0 0.0 0.00 0.00 0.00 48 1015.3
20260508083903 10 0 0.0 0.0 0.00 0.00 0.00 49 1015.3
20260508083804 10 0 0.0 0.0 0.00 0.00 0.00 49 1015.3
20260508083703 10 0 0.0 0.0 0.00 0.00 0.00 49 1015.3
20260508083603 10 0 0.0 0.0 0.00 0.00 0.00 49 1015.3
20260508083503 10 0 0.0 0.0 0.00 0.00 0.00 50 1015.2
20260508083403 9 0 0.0 0.0 0.00 0.00 0.00 51 1015.4
20260508083303 9 0 0.0 0.0 0.00 0.00 0.00 51 1015.3
20260508083203 9 0 0.0 0.0 0.00 0.00 0.00 51 1015.4
20260508083104 9 0 0.0 0.0 0.00 0.00 0.00 51 1015.4
20260508083003 9 0 0.0 0.0 0.00 0.00 0.00 51 1015.5
20260508082903 9 0 0.0 0.0 0.00 0.00 0.00 51 1015.6
20260508082803 10 0 0.0 0.0 0.00 0.00 0.00 50 1015.4
20260508082704 10 0 0.0 0.0 0.00 0.00 0.00 50 1015.5
20260508082603 10 0 0.0 0.0 0.00 0.00 0.00 50 1015.5
20260508082503 10 0 0.0 0.0 0.00 0.00 0.00 49 1015.6
20260508082403 10 0 0.0 0.0 0.00 0.00 0.00 48 1015.5
20260508082306 10 0 0.0 0.0 0.00 0.00 0.00 48 1015.6
20260508082203 10 0 0.0 0.0 0.00 0.00 0.00 48 1015.5
20260508082103 10 0 0.0 0.0 0.00 0.00 0.00 48 1015.6
20260508082003 10 0 0.0 0.0 0.00 0.00 0.00 47 1015.5
20260508081803 10 0 0.0 0.0 0.00 0.00 0.00 47 1015.4
20260508081703 10 0 0.0 0.0 0.00 0.00 0.00 47 1015.4
20260508081603 10 0 0.0 0.0 0.00 0.00 0.00 47 1015.5
20260508081504 11 0 0.0 0.0 0.00 0.00 0.00 46 1015.5
20260508081403 11 0 0.0 0.0 0.00 0.00 0.00 46 1015.6
20260508081303 11 0 0.0 0.0 0.00 0.00 0.00 46 1015.6
20260508081204 11 0 0.0 0.0 0.00 0.00 0.00 45 1015.7
20260508081104 11 0 0.0 0.0 0.00 0.00 0.00 44 1015.7
20260508081003 12 0 0.0 0.0 0.00 0.00 0.00 44 1015.6
20260508080804 12 0 0.0 0.0 0.00 0.00 0.00 42 1015.4
20260508080703 11 0 0.0 0.0 0.00 0.00 0.00 42 1015.5
20260508080603 11 0 0.0 0.0 0.00 0.00 0.00 43 1015.4
20260508080503 11 0 0.0 0.0 0.00 0.00 0.00 44 1015.4
20260508080403 11 0 0.0 0.0 0.00 0.00 0.00 44 1015.4
20260508080304 11 0 0.0 0.0 0.00 0.00 0.00 44 1015.4
20260508080203 11 0 0.0 0.0 0.00 0.00 0.00 45 1015.4
20260508080004 11 0 0.0 0.0 0.00 0.00 0.00 46 1015.6
20260508075903 11 0 0.0 0.0 0.00 0.00 0.00 46 1015.6
20260508075803 11 0 0.0 0.0 0.00 0.00 0.00 45 1015.5
20260508075704 11 0 0.0 0.0 0.00 0.00 0.00 45 1015.5
20260508075603 11 0 0.0 0.0 0.00 0.00 0.00 44 1015.5
20260508075503 11 0 0.0 0.0 0.00 0.00 0.00 44 1015.5
20260508075403 11 0 1.6 0.0 0.00 0.00 0.00 45 1015.4
20260508075308 11 0 1.6 0.0 0.00 0.00 0.00 45 1015.5
20260508075203 10 261 1.6 1.6 0.00 0.00 0.00 46 1015.5
20260508075103 10 261 1.6 1.6 0.00 0.00 0.00 46 1015.5
20260508075004 10 261 1.6 1.6 0.00 0.00 0.00 47 1015.5
20260508074903 10 253 3.2 6.4 0.00 0.00 0.00 47 1015.5
20260508074803 10 252 3.2 9.7 0.00 0.00 0.00 48 1015.5
20260508074603 10 253 1.6 11.3 0.00 0.00 0.00 48 1015.5
20260508074504 10 254 1.6 11.3 0.00 0.00 0.00 48 1015.7
20260508074403 10 255 1.6 11.3 0.00 0.00 0.00 48 1015.7
20260508074303 10 255 1.6 11.3 0.00 0.00 0.00 48 1015.6
20260508074103 10 255 0.0 11.3 0.00 0.00 0.00 48 1015.8
20260508073904 10 255 0.0 11.3 0.00 0.00 0.00 47 1015.7
20260508073703 11 260 0.0 11.3 0.00 0.00 0.00 46 1015.6
20260508073503 11 260 1.6 9.7 0.00 0.00 0.00 46 1015.6
20260508073404 11 0 1.6 0.0 0.00 0.00 0.00 46 1015.7
20260508073303 11 0 1.6 0.0 0.00 0.00 0.00 46 1015.8
20260508073203 11 0 1.6 0.0 0.00 0.00 0.00 46 1015.8
20260508073103 11 0 3.2 0.0 0.00 0.00 0.00 46 1015.8
20260508073003 11 228 3.2 9.7 0.00 0.00 0.00 45 1015.7
20260508072903 11 228 3.2 9.7 0.00 0.00 0.00 46 1015.8
20260508072804 11 227 3.2 9.7 0.00 0.00 0.00 45 1015.6
20260508072703 11 226 3.2 9.7 0.00 0.00 0.00 44 1015.7
20260508072604 11 225 3.2 9.7 0.00 0.00 0.00 44 1015.7
20260508072503 11 225 1.6 9.7 0.00 0.00 0.00 46 1015.8
20260508072403 11 227 1.6 9.7 0.00 0.00 0.00 46 1015.9
20260508072307 11 227 1.6 9.7 0.00 0.00 0.00 46 1015.9
20260508072203 11 227 1.6 9.7 0.00 0.00 0.00 46 1015.8
20260508072103 11 227 0.0 9.7 0.00 0.00 0.00 45 1015.7
20260508072003 11 227 0.0 9.7 0.00 0.00 0.00 45 1015.7
20260508071903 11 226 0.0 9.7 0.00 0.00 0.00 46 1015.7
20260508071803 10 227 0.0 9.7 0.00 0.00 0.00 46 1015.8
20260508071703 10 0 0.0 9.7 0.00 0.00 0.00 47 1015.8
20260508071604 10 0 0.0 8.0 0.00 0.00 0.00 47 1015.8
20260508071403 10 0 0.0 8.0 0.00 0.00 0.00 47 1015.8
20260508071303 10 0 0.0 8.0 0.00 0.00 0.00 47 1015.8
20260508071204 10 0 0.0 8.0 0.00 0.00 0.00 47 1015.8
20260508071103 10 0 0.0 8.0 0.00 0.00 0.00 47 1015.8
20260508071003 10 0 0.0 8.0 0.00 0.00 0.00 47 1015.8
20260508070904 10 0 0.0 8.0 0.00 0.00 0.00 47 1015.9
20260508070803 10 0 0.0 8.0 0.00 0.00 0.00 47 1015.9
20260508070703 10 0 0.0 0.0 0.00 0.00 0.00 48 1016.0
20260508070603 10 0 0.0 0.0 0.00 0.00 0.00 48 1016.0
20260508070504 10 0 0.0 0.0 0.00 0.00 0.00 47 1015.9
20260508070403 10 0 0.0 0.0 0.00 0.00 0.00 47 1015.9
20260508070303 10 0 0.0 0.0 0.00 0.00 0.00 47 1015.9
20260508070203 10 0 0.0 0.0 0.00 0.00 0.00 48 1015.9
20260508070104 10 0 0.0 0.0 0.00 0.00 0.00 48 1016.0
20260508070004 10 0 0.0 0.0 0.00 0.00 0.00 47 1015.5
20260508065903 10 0 0.0 0.0 0.00 0.00 0.00 47 1015.6
20260508065804 11 0 0.0 0.0 0.00 0.00 0.00 47 1015.6
20260508065703 11 0 0.0 0.0 0.00 0.00 0.00 47 1015.6
20260508065603 11 0 0.0 1.6 0.00 0.00 0.00 46 1015.4
20260508065503 11 0 0.0 1.6 0.00 0.00 0.00 46 1015.4
20260508065404 11 0 0.0 1.6 0.00 0.00 0.00 46 1015.3
20260508065306 11 0 0.0 1.6 0.00 0.00 0.00 46 1015.4
20260508065203 11 0 0.0 1.6 0.00 0.00 0.00 47 1015.5
20260508065104 11 0 0.0 1.6 0.00 0.00 0.00 47 1015.3
20260508064903 11 0 0.0 1.6 0.00 0.00 0.00 45 1015.3
20260508064803 11 0 0.0 1.6 0.00 0.00 0.00 46 1015.4
20260508064703 11 0 0.0 1.6 0.00 0.00 0.00 46 1015.3
20260508064603 11 0 0.0 1.6 0.00 0.00 0.00 46 1015.3
20260508064503 11 0 0.0 0.0 0.00 0.00 0.00 46 1015.3
20260508064403 11 0 0.0 0.0 0.00 0.00 0.00 46 1015.3
20260508064304 10 0 0.0 0.0 0.00 0.00 0.00 45 1015.3
20260508064203 10 0 0.0 0.0 0.00 0.00 0.00 46 1015.3
20260508064103 10 0 0.0 0.0 0.00 0.00 0.00 46 1015.4
20260508064004 10 0 0.0 1.6 0.00 0.00 0.00 46 1015.3
20260508063903 10 0 0.0 1.6 0.00 0.00 0.00 47 1015.3
20260508063803 10 0 0.0 1.6 0.00 0.00 0.00 47 1015.5
20260508063703 11 0 0.0 1.6 0.00 0.00 0.00 47 1015.5
20260508063604 11 0 0.0 1.6 0.00 0.00 0.00 47 1015.5
20260508063503 11 0 0.0 1.6 0.00 0.00 0.00 46 1015.3
20260508063403 11 0 0.0 1.6 0.00 0.00 0.00 45 1015.3
20260508063303 11 0 0.0 1.6 0.00 0.00 0.00 45 1015.4
20260508063204 11 0 0.0 1.6 0.00 0.00 0.00 46 1015.3
20260508063103 11 0 0.0 1.6 0.00 0.00 0.00 46 1015.5
20260508063003 11 0 0.0 1.6 0.00 0.00 0.00 46 1015.4
20260508062904 11 0 0.0 0.0 0.00 0.00 0.00 45 1015.5
20260508062803 11 0 0.0 0.0 0.00 0.00 0.00 45 1015.5
20260508062703 11 0 0.0 0.0 0.00 0.00 0.00 45 1015.4
20260508062604 11 0 0.0 0.0 0.00 0.00 0.00 45 1015.4
20260508062504 11 0 0.0 0.0 0.00 0.00 0.00 45 1015.4
20260508062403 11 0 0.0 0.0 0.00 0.00 0.00 45 1015.4
20260508062306 12 0 0.0 0.0 0.00 0.00 0.00 46 1015.5
20260508062103 11 0 0.0 0.0 0.00 0.00 0.00 44 1015.3
20260508062003 11 0 0.0 0.0 0.00 0.00 0.00 45 1015.3
20260508061903 11 0 0.0 0.0 0.00 0.00 0.00 45 1015.3
20260508061803 11 0 0.0 0.0 0.00 0.00 0.00 46 1015.3
20260508061704 11 0 0.0 0.0 0.00 0.00 0.00 45 1015.2
20260508061603 11 0 0.0 0.0 0.00 0.00 0.00 45 1015.2
20260508061503 10 0 0.0 0.0 0.00 0.00 0.00 46 1015.1
20260508061403 10 0 0.0 0.0 0.00 0.00 0.00 46 1015.2
20260508061203 10 0 0.0 0.0 0.00 0.00 0.00 47 1015.2
20260508061103 10 0 0.0 0.0 0.00 0.00 0.00 47 1015.2
20260508061003 10 0 0.0 0.0 0.00 0.00 0.00 47 1015.3
20260508060904 10 0 0.0 0.0 0.00 0.00 0.00 47 1015.2
20260508060803 10 0 0.0 0.0 0.00 0.00 0.00 47 1015.2
20260508060703 10 0 0.0 0.0 0.00 0.00 0.00 47 1015.3
20260508060604 10 0 0.0 0.0 0.00 0.00 0.00 47 1015.3
20260508060504 10 0 0.0 0.0 0.00 0.00 0.00 47 1015.3
20260508060403 10 0 0.0 0.0 0.00 0.00 0.00 47 1015.2
20260508060304 10 0 0.0 3.2 0.00 0.00 0.00 46 1015.2
20260508060203 10 0 0.0 3.2 0.00 0.00 0.00 47 1015.2
20260508055903 10 0 0.0 3.2 0.00 0.00 0.00 48 1015.3
20260508055804 10 0 0.0 3.2 0.00 0.00 0.00 48 1015.3
20260508055703 10 0 0.0 3.2 0.00 0.00 0.00 48 1015.3
20260508055603 10 0 0.0 3.2 0.00 0.00 0.00 48 1015.3
20260508055503 10 0 0.0 3.2 0.00 0.00 0.00 48 1015.3
20260508055404 10 0 0.0 3.2 0.00 0.00 0.00 48 1015.3
20260508055306 11 0 0.0 1.6 0.00 0.00 0.00 48 1015.3
20260508055203 11 0 0.0 0.0 0.00 0.00 0.00 48 1015.2
20260508055103 11 0 0.0 0.0 0.00 0.00 0.00 47 1015.3
20260508055004 11 0 0.0 1.6 0.00 0.00 0.00 47 1015.2
20260508054903 11 0 0.0 1.6 0.00 0.00 0.00 47 1015.2
20260508054803 10 0 0.0 1.6 0.00 0.00 0.00 47 1015.2
20260508054703 10 0 0.0 1.6 0.00 0.00 0.00 48 1015.2
20260508054604 10 0 0.0 1.6 0.00 0.00 0.00 48 1015.2
20260508054403 10 0 0.0 1.6 0.00 0.00 0.00 49 1015.3
20260508054303 10 0 0.0 1.6 0.00 0.00 0.00 49 1015.4
20260508054204 10 0 0.0 1.6 0.00 0.00 0.00 50 1015.4
20260508054103 10 0 0.0 1.6 0.00 0.00 0.00 49 1015.4
20260508054003 11 0 0.0 1.6 0.00 0.00 0.00 50 1015.4
20260508053703 11 0 0.0 0.0 0.00 0.00 0.00 50 1015.3
20260508053603 11 0 0.0 0.0 0.00 0.00 0.00 50 1015.4
20260508053503 11 0 0.0 0.0 0.00 0.00 0.00 51 1015.3
20260508053304 10 0 0.0 0.0 0.00 0.00 0.00 52 1015.3
20260508053103 10 0 0.0 0.0 0.00 0.00 0.00 52 1015.3
20260508053003 10 0 0.0 0.0 0.00 0.00 0.00 53 1015.3
20260508052904 10 0 0.0 0.0 0.00 0.00 0.00 52 1015.3
20260508052803 11 0 0.0 0.0 0.00 0.00 0.00 51 1015.4
20260508052703 11 0 0.0 0.0 0.00 0.00 0.00 51 1015.3
20260508052603 11 0 0.0 0.0 0.00 0.00 0.00 52 1015.4
20260508052504 11 0 0.0 0.0 0.00 0.00 0.00 52 1015.4
20260508052403 11 0 0.0 0.0 0.00 0.00 0.00 51 1015.5
20260508052306 11 0 0.0 0.0 0.00 0.00 0.00 51 1015.6
20260508052203 11 0 0.0 0.0 0.00 0.00 0.00 51 1015.5
20260508052103 11 0 0.0 0.0 0.00 0.00 0.00 52 1015.5
20260508052003 11 0 0.0 0.0 0.00 0.00 0.00 52 1015.5
20260508051903 11 0 0.0 0.0 0.00 0.00 0.00 52 1015.5
20260508051804 11 0 0.0 0.0 0.00 0.00 0.00 52 1015.5
20260508051703 11 0 0.0 0.0 0.00 0.00 0.00 52 1015.4
20260508051603 11 0 0.0 0.0 0.00 0.00 0.00 52 1015.4
20260508051503 11 0 0.0 0.0 0.00 0.00 0.00 52 1015.4
20260508051404 11 0 0.0 0.0 0.00 0.00 0.00 52 1015.4
20260508051303 11 0 0.0 0.0 0.00 0.00 0.00 52 1015.5
20260508051104 11 0 0.0 0.0 0.00 0.00 0.00 52 1015.5
20260508051004 11 0 0.0 0.0 0.00 0.00 0.00 52 1015.6
20260508050903 11 0 0.0 0.0 0.00 0.00 0.00 53 1015.6
20260508050803 11 0 0.0 0.0 0.00 0.00 0.00 53 1015.6
20260508050704 11 0 0.0 0.0 0.00 0.00 0.00 53 1015.6
20260508050603 11 0 0.0 0.0 0.00 0.00 0.00 53 1015.6
20260508050503 11 0 0.0 0.0 0.00 0.00 0.00 53 1015.6
20260508050404 11 0 0.0 0.0 0.00 0.00 0.00 54 1015.6
20260508050303 11 0 0.0 0.0 0.00 0.00 0.00 54 1015.5
20260508050203 11 0 0.0 0.0 0.00 0.00 0.00 54 1015.6
20260508050103 11 0 0.0 0.0 0.00 0.00 0.00 53 1015.6
20260508045903 11 0 0.0 0.0 0.00 0.00 0.00 53 1015.6
20260508045803 11 0 0.0 0.0 0.00 0.00 0.00 54 1015.6
20260508045703 11 0 0.0 0.0 0.00 0.00 0.00 54 1015.6
20260508045604 11 0 0.0 0.0 0.00 0.00 0.00 54 1015.7
20260508045503 11 0 0.0 0.0 0.00 0.00 0.00 55 1015.6
20260508045403 11 0 0.0 0.0 0.00 0.00 0.00 54 1015.6
20260508045306 10 0 0.0 0.0 0.00 0.00 0.00 55 1015.6
20260508045103 10 0 0.0 0.0 0.00 0.00 0.00 56 1015.7
20260508045003 10 0 0.0 0.0 0.00 0.00 0.00 56 1015.7
20260508044904 10 0 0.0 0.0 0.00 0.00 0.00 56 1015.7
20260508044803 10 0 0.0 0.0 0.00 0.00 0.00 56 1015.8
20260508044703 10 0 0.0 0.0 0.00 0.00 0.00 56 1015.7
20260508044603 10 0 0.0 0.0 0.00 0.00 0.00 57 1015.8
20260508044403 10 0 0.0 0.0 0.00 0.00 0.00 58 1015.8
20260508044303 10 0 0.0 0.0 0.00 0.00 0.00 58 1015.8
20260508044203 10 0 0.0 0.0 0.00 0.00 0.00 58 1015.7
20260508044104 10 0 0.0 0.0 0.00 0.00 0.00 59 1015.8
20260508044003 10 0 0.0 0.0 0.00 0.00 0.00 59 1015.9
20260508043903 10 0 0.0 0.0 0.00 0.00 0.00 59 1015.8
20260508043804 10 0 0.0 0.0 0.00 0.00 0.00 59 1015.8
20260508043603 10 0 0.0 0.0 0.00 0.00 0.00 59 1015.4
20260508043503 10 0 0.0 0.0 0.00 0.00 0.00 59 1015.3
20260508043403 10 0 0.0 0.0 0.00 0.00 0.00 59 1015.4
20260508043304 10 0 0.0 0.0 0.00 0.00 0.00 59 1015.4
20260508043203 10 0 0.0 0.0 0.00 0.00 0.00 59 1015.4
20260508043103 10 0 0.0 0.0 0.00 0.00 0.00 60 1015.4
20260508043003 10 0 0.0 0.0 0.00 0.00 0.00 60 1015.4
20260508042904 10 0 0.0 0.0 0.00 0.00 0.00 60 1015.5
20260508042803 10 0 0.0 0.0 0.00 0.00 0.00 59 1015.5
20260508042703 10 0 0.0 0.0 0.00 0.00 0.00 59 1015.4
20260508042604 10 0 0.0 0.0 0.00 0.00 0.00 59 1015.8
20260508042403 10 0 0.0 0.0 0.00 0.00 0.00 58 1015.8
20260508042306 10 0 0.0 0.0 0.00 0.00 0.00 58 1015.8
20260508042204 10 0 0.0 0.0 0.00 0.00 0.00 58 1015.8
20260508042104 10 0 0.0 0.0 0.00 0.00 0.00 58 1015.9
20260508042003 11 0 0.0 0.0 0.00 0.00 0.00 58 1015.9
20260508041903 11 0 0.0 0.0 0.00 0.00 0.00 58 1015.9
20260508041804 11 0 0.0 0.0 0.00 0.00 0.00 57 1015.9
20260508041703 11 0 0.0 0.0 0.00 0.00 0.00 57 1015.9
20260508041503 11 0 0.0 0.0 0.00 0.00 0.00 57 1016.1
20260508041404 11 0 0.0 0.0 0.00 0.00 0.00 56 1016.1
20260508041303 11 0 0.0 0.0 0.00 0.00 0.00 56 1016.0
20260508041203 11 0 0.0 0.0 0.00 0.00 0.00 54 1015.9
20260508041103 11 0 0.0 0.0 0.00 0.00 0.00 54 1015.9
20260508041004 11 0 0.0 0.0 0.00 0.00 0.00 54 1016.0
20260508040903 11 0 0.0 0.0 0.00 0.00 0.00 54 1016.0
20260508040803 11 0 0.0 0.0 0.00 0.00 0.00 54 1016.0
20260508040703 11 0 0.0 1.6 0.00 0.00 0.00 55 1016.1
20260508040604 11 0 0.0 1.6 0.00 0.00 0.00 55 1016.1
20260508040503 11 0 0.0 1.6 0.00 0.00 0.00 55 1016.0
20260508040403 11 0 0.0 1.6 0.00 0.00 0.00 55 1016.1
20260508040303 11 0 0.0 1.6 0.00 0.00 0.00 56 1016.1
20260508040204 11 0 0.0 1.6 0.00 0.00 0.00 56 1016.1
20260508040103 11 0 0.0 1.6 0.00 0.00 0.00 56 1016.2
20260508040003 11 0 0.0 1.6 0.00 0.00 0.00 56 1015.7
20260508035904 11 0 0.0 1.6 0.00 0.00 0.00 56 1015.7
20260508035803 11 0 0.0 1.6 0.00 0.00 0.00 56 1015.7
20260508035703 11 0 0.0 1.6 0.00 0.00 0.00 56 1015.7
20260508035603 11 0 0.0 1.6 0.00 0.00 0.00 56 1015.7
20260508035504 11 0 0.0 1.6 0.00 0.00 0.00 56 1015.6
20260508035403 11 0 0.0 1.6 0.00 0.00 0.00 56 1015.6
20260508035306 11 0 0.0 1.6 0.00 0.00 0.00 56 1015.5
20260508035203 11 0 0.0 1.6 0.00 0.00 0.00 57 1015.7
20260508035104 11 0 0.0 1.6 0.00 0.00 0.00 57 1015.7
20260508035004 11 0 0.0 1.6 0.00 0.00 0.00 57 1015.8
20260508034903 11 0 0.0 1.6 0.00 0.00 0.00 57 1015.6
20260508034804 11 0 0.0 1.6 0.00 0.00 0.00 57 1015.6
20260508034603 11 0 0.0 1.6 0.00 0.00 0.00 58 1015.6
20260508034503 11 0 0.0 8.0 0.00 0.00 0.00 58 1015.5
20260508034404 11 0 0.0 8.0 0.00 0.00 0.00 58 1015.6
20260508034203 11 0 0.0 8.0 0.00 0.00 0.00 57 1015.6
20260508034104 11 0 0.0 8.0 0.00 0.00 0.00 57 1015.6
20260508034004 11 0 0.0 8.0 0.00 0.00 0.00 57 1015.6
20260508033903 11 0 0.0 8.0 0.00 0.00 0.00 58 1015.5
20260508033803 11 0 0.0 8.0 0.00 0.00 0.00 57 1015.6
20260508033704 11 0 0.0 8.0 0.00 0.00 0.00 57 1015.5
20260508033603 11 0 0.0 8.0 0.00 0.00 0.00 57 1015.5
20260508033503 11 0 0.0 1.6 0.00 0.00 0.00 57 1015.4
20260508033304 11 0 0.0 0.0 0.00 0.00 0.00 57 1015.4
20260508033203 11 0 0.0 0.0 0.00 0.00 0.00 57 1015.4
20260508033103 11 0 0.0 0.0 0.00 0.00 0.00 56 1015.4
20260508033003 11 0 0.0 0.0 0.00 0.00 0.00 56 1015.5
20260508032904 11 0 0.0 0.0 0.00 0.00 0.00 56 1015.4
20260508032803 11 0 0.0 0.0 0.00 0.00 0.00 56 1015.4
20260508032703 11 0 0.0 0.0 0.00 0.00 0.00 56 1015.4
20260508032604 12 0 0.0 0.0 0.00 0.00 0.00 55 1015.4
20260508032503 12 0 0.0 0.0 0.00 0.00 0.00 56 1015.4
20260508032306 12 0 0.0 0.0 0.00 0.00 0.00 55 1015.4
20260508032203 12 0 0.0 0.0 0.00 0.00 0.00 55 1015.4
20260508032103 12 0 0.0 0.0 0.00 0.00 0.00 55 1015.3
20260508032003 12 0 0.0 0.0 0.00 0.00 0.00 55 1015.3
20260508031904 12 0 0.0 0.0 0.00 0.00 0.00 55 1015.3
20260508031803 12 0 0.0 0.0 0.00 0.00 0.00 55 1015.2
20260508031703 12 0 0.0 0.0 0.00 0.00 0.00 55 1015.2
20260508031604 12 0 0.0 0.0 0.00 0.00 0.00 55 1015.3
20260508031504 11 0 0.0 0.0 0.00 0.00 0.00 55 1015.3
20260508031403 11 0 0.0 0.0 0.00 0.00 0.00 55 1015.3
20260508031303 11 0 0.0 0.0 0.00 0.00 0.00 55 1015.3
20260508031203 11 0 0.0 0.0 0.00 0.00 0.00 56 1015.3
20260508031104 11 0 0.0 0.0 0.00 0.00 0.00 56 1015.3
20260508031003 11 0 0.0 0.0 0.00 0.00 0.00 56 1015.3
20260508030903 11 0 0.0 0.0 0.00 0.00 0.00 56 1015.3
20260508030804 11 0 0.0 0.0 0.00 0.00 0.00 56 1015.3
20260508030704 11 0 0.0 0.0 0.00 0.00 0.00 56 1015.3
20260508030603 11 0 0.0 0.0 0.00 0.00 0.00 56 1015.3
20260508030504 11 0 0.0 0.0 0.00 0.00 0.00 56 1015.3
20260508030403 11 0 0.0 0.0 0.00 0.00 0.00 56 1015.3
20260508030303 11 0 0.0 0.0 0.00 0.00 0.00 56 1015.2
20260508030204 11 0 0.0 0.0 0.00 0.00 0.00 56 1015.2
20260508030103 11 0 0.0 0.0 0.00 0.00 0.00 55 1015.2
20260508030003 11 0 0.0 0.0 0.00 0.00 0.00 55 1015.2
20260508025903 11 0 0.0 0.0 0.00 0.00 0.00 55 1015.2
20260508025804 12 0 0.0 0.0 0.00 0.00 0.00 55 1015.1
20260508025703 12 0 0.0 0.0 0.00 0.00 0.00 55 1015.0
20260508025604 12 0 0.0 0.0 0.00 0.00 0.00 55 1015.1
20260508025504 12 0 0.0 0.0 0.00 0.00 0.00 55 1015.0
20260508025403 12 0 0.0 0.0 0.00 0.00 0.00 54 1015.0
20260508025306 12 0 0.0 0.0 0.00 0.00 0.00 54 1015.0
20260508025203 12 0 0.0 0.0 0.00 0.00 0.00 54 1014.9
20260508025103 12 0 0.0 0.0 0.00 0.00 0.00 54 1014.9
20260508025004 12 0 0.0 0.0 0.00 0.00 0.00 53 1014.8
20260508024904 12 0 0.0 0.0 0.00 0.00 0.00 53 1014.8
20260508024803 12 0 0.0 0.0 0.00 0.00 0.00 52 1014.7
20260508024703 12 0 0.0 0.0 0.00 0.00 0.00 52 1014.7
20260508024604 13 0 0.0 0.0 0.00 0.00 0.00 52 1014.7
20260508024503 13 0 0.0 0.0 0.00 0.00 0.00 52 1014.7
20260508024404 13 0 0.0 0.0 0.00 0.00 0.00 52 1014.7
20260508024303 13 0 0.0 0.0 0.00 0.00 0.00 52 1014.7
20260508024203 13 0 0.0 0.0 0.00 0.00 0.00 51 1014.7
20260508024104 13 0 0.0 0.0 0.00 0.00 0.00 51 1014.7
20260508024003 13 0 0.0 0.0 0.00 0.00 0.00 50 1014.6
20260508023903 13 0 0.0 0.0 0.00 0.00 0.00 50 1014.6
20260508023804 13 0 0.0 0.0 0.00 0.00 0.00 50 1014.5
20260508023704 13 0 0.0 0.0 0.00 0.00 0.00 50 1014.6
20260508023603 13 0 0.0 0.0 0.00 0.00 0.00 49 1014.7
20260508023503 13 0 0.0 0.0 0.00 0.00 0.00 50 1014.6
20260508023404 13 0 0.0 0.0 0.00 0.00 0.00 50 1014.7
20260508023303 13 0 0.0 0.0 0.00 0.00 0.00 50 1014.6
20260508023203 13 0 0.0 0.0 0.00 0.00 0.00 50 1014.7
20260508023104 13 0 0.0 0.0 0.00 0.00 0.00 50 1014.6
20260508023003 13 0 0.0 0.0 0.00 0.00 0.00 50 1014.6
20260508022903 13 0 0.0 0.0 0.00 0.00 0.00 50 1014.6
20260508022804 13 0 0.0 0.0 0.00 0.00 0.00 50 1014.6
20260508022703 13 0 0.0 0.0 0.00 0.00 0.00 50 1014.5
20260508022603 13 0 0.0 0.0 0.00 0.00 0.00 49 1014.5
20260508022504 13 0 0.0 0.0 0.00 0.00 0.00 49 1014.5
20260508022403 13 0 0.0 0.0 0.00 0.00 0.00 49 1014.5
20260508022306 13 0 0.0 0.0 0.00 0.00 0.00 49 1014.5
20260508022204 13 0 0.0 0.0 0.00 0.00 0.00 49 1014.5
20260508022103 13 0 0.0 0.0 0.00 0.00 0.00 49 1014.4
20260508022004 13 0 0.0 0.0 0.00 0.00 0.00 48 1014.4
20260508021904 13 0 0.0 0.0 0.00 0.00 0.00 48 1014.3
20260508021803 13 0 0.0 0.0 0.00 0.00 0.00 48 1014.3
20260508021704 13 0 0.0 0.0 0.00 0.00 0.00 48 1014.3
20260508021604 13 0 0.0 0.0 0.00 0.00 0.00 48 1014.3
20260508021503 13 0 0.0 0.0 0.00 0.00 0.00 48 1014.3
20260508021403 13 0 0.0 0.0 0.00 0.00 0.00 48 1014.3
20260508021304 14 0 0.0 0.0 0.00 0.00 0.00 48 1014.4
20260508021203 14 0 0.0 0.0 0.00 0.00 0.00 48 1014.4
20260508021103 14 0 0.0 0.0 0.00 0.00 0.00 48 1014.5
20260508021004 14 0 0.0 0.0 0.00 0.00 0.00 48 1014.5
20260508020903 14 0 0.0 0.0 0.00 0.00 0.00 47 1014.4
20260508020804 14 0 0.0 0.0 0.00 0.00 0.00 47 1014.5
20260508020603 14 0 0.0 0.0 0.00 0.00 0.00 47 1014.4
20260508020503 14 0 0.0 0.0 0.00 0.00 0.00 47 1014.3
20260508020404 15 0 0.0 0.0 0.00 0.00 0.00 47 1014.4
20260508020303 15 0 0.0 0.0 0.00 0.00 0.00 46 1014.3
20260508020203 15 0 0.0 0.0 0.00 0.00 0.00 46 1014.4
20260508020104 15 0 0.0 0.0 0.00 0.00 0.00 46 1014.4
20260508020004 15 0 0.0 0.0 0.00 0.00 0.00 46 1014.4
20260508015903 15 0 0.0 0.0 0.00 0.00 0.00 46 1014.4
20260508015804 15 0 0.0 0.0 0.00 0.00 0.00 46 1014.4
20260508015703 15 0 0.0 0.0 0.00 0.00 0.00 46 1014.4
20260508015603 15 0 0.0 0.0 0.00 0.00 0.00 46 1014.4
20260508015504 15 0 0.0 0.0 0.00 0.00 0.00 47 1014.4
20260508015403 15 0 0.0 0.0 0.00 0.00 0.00 46 1014.3
20260508015305 15 0 0.0 0.0 0.00 0.00 0.00 45 1014.4
20260508015204 15 0 0.0 0.0 0.00 0.00 0.00 45 1014.4
20260508015103 15 0 0.0 0.0 0.00 0.00 0.00 45 1014.3
20260508015003 15 0 0.0 0.0 0.00 0.00 0.00 45 1014.3
20260508014904 15 0 0.0 0.0 0.00 0.00 0.00 45 1014.4
20260508014803 15 0 0.0 0.0 0.00 0.00 0.00 45 1014.3
20260508014704 15 0 0.0 0.0 0.00 0.00 0.00 45 1014.3
20260508014604 15 0 0.0 0.0 0.00 0.00 0.00 45 1014.3
20260508014504 15 0 0.0 0.0 0.00 0.00 0.00 44 1014.3
20260508014403 15 0 0.0 0.0 0.00 0.00 0.00 44 1014.3
20260508014304 16 0 0.0 0.0 0.00 0.00 0.00 44 1014.3
20260508014203 16 0 0.0 0.0 0.00 0.00 0.00 44 1014.3
20260508014103 16 0 0.0 0.0 0.00 0.00 0.00 44 1014.3
20260508014004 16 0 0.0 0.0 0.00 0.00 0.00 44 1014.3
20260508013903 16 0 0.0 0.0 0.00 0.00 0.00 43 1014.3
20260508013803 16 0 0.0 0.0 0.00 0.00 0.00 43 1014.3
20260508013704 16 0 0.0 0.0 0.00 0.00 0.00 44 1014.3
20260508013403 16 0 0.0 0.0 0.00 0.00 0.00 42 1014.3
20260508013304 16 0 0.0 0.0 0.00 0.00 0.00 42 1014.2
20260508013203 16 0 0.0 0.0 0.00 0.00 0.00 42 1014.3
20260508013103 16 0 0.0 0.0 0.00 0.00 0.00 42 1014.2
20260508013004 16 0 0.0 0.0 0.00 0.00 0.00 42 1014.2
20260508012903 16 0 0.0 0.0 0.00 0.00 0.00 41 1014.2
20260508012803 16 0 0.0 0.0 0.00 0.00 0.00 41 1014.2
20260508012704 16 0 0.0 0.0 0.00 0.00 0.00 40 1014.2
20260508012603 16 0 0.0 0.0 0.00 0.00 0.00 41 1014.2
20260508012404 16 0 0.0 0.0 0.00 0.00 0.00 41 1014.1
20260508012307 17 0 0.0 0.0 0.00 0.00 0.00 41 1014.2
20260508012203 17 0 0.0 0.0 0.00 0.00 0.00 41 1014.2
20260508012103 17 0 0.0 0.0 0.00 0.00 0.00 41 1014.2
20260508012004 17 0 0.0 0.0 0.00 0.00 0.00 40 1014.2
20260508011903 17 0 0.0 0.0 0.00 0.00 0.00 41 1014.2
20260508011803 17 0 0.0 0.0 0.00 0.00 0.00 40 1014.2
20260508011704 17 0 0.0 0.0 0.00 0.00 0.00 39 1014.2
20260508011604 17 0 0.0 0.0 0.00 0.00 0.00 40 1014.2
20260508011503 17 0 0.0 0.0 0.00 0.00 0.00 40 1014.2
20260508011404 16 0 0.0 0.0 0.00 0.00 0.00 40 1014.2
20260508011303 16 0 0.0 0.0 0.00 0.00 0.00 40 1014.2
20260508011203 16 0 0.0 0.0 0.00 0.00 0.00 40 1014.2
20260508011104 16 0 0.0 0.0 0.00 0.00 0.00 40 1014.2
20260508011003 16 0 0.0 0.0 0.00 0.00 0.00 40 1014.2
20260508010903 16 0 0.0 0.0 0.00 0.00 0.00 40 1014.2
20260508010804 16 0 0.0 1.6 0.00 0.00 0.00 41 1014.3
20260508010704 16 0 0.0 1.6 0.00 0.00 0.00 41 1014.3
20260508010603 16 0 0.0 3.2 0.00 0.00 0.00 40 1014.2
20260508010503 16 0 0.0 3.2 0.00 0.00 0.00 40 1014.3
20260508010404 16 0 0.0 3.2 0.00 0.00 0.00 40 1014.3
20260508010303 16 0 0.0 3.2 0.00 0.00 0.00 41 1014.3
20260508010204 16 0 0.0 3.2 0.00 0.00 0.00 42 1014.3
20260508010104 16 0 0.0 3.2 0.00 0.00 0.00 42 1014.2
20260508010003 16 0 0.0 3.2 0.00 0.00 0.00 42 1014.2
20260508005904 16 0 0.0 3.2 0.00 0.00 0.00 41 1014.3
20260508005804 16 0 0.0 3.2 0.00 0.00 0.00 41 1014.2
20260508005703 16 0 0.0 3.2 0.00 0.00 0.00 41 1014.2
20260508005604 16 0 0.0 3.2 0.00 0.00 0.00 42 1014.2
20260508005503 16 0 0.0 0.0 0.00 0.00 0.00 41 1014.3
20260508005404 16 0 0.0 0.0 0.00 0.00 0.00 38 1014.2
20260508005305 16 0 0.0 0.0 0.00 0.00 0.00 38 1014.2
20260508005203 16 0 0.0 0.0 0.00 0.00 0.00 38 1014.3
20260508005104 16 0 0.0 0.0 0.00 0.00 0.00 38 1014.3
20260508005003 16 0 0.0 0.0 0.00 0.00 0.00 38 1014.3
20260508004903 16 0 0.0 0.0 0.00 0.00 0.00 39 1014.3
20260508004804 16 0 0.0 0.0 0.00 0.00 0.00 40 1014.4
20260508004703 16 0 0.0 0.0 0.00 0.00 0.00 40 1014.3
20260508004603 16 0 0.0 0.0 0.00 0.00 0.00 41 1014.3
20260508004503 16 0 0.0 0.0 0.00 0.00 0.00 41 1014.2
20260508004404 16 0 0.0 0.0 0.00 0.00 0.00 40 1014.3
20260508004303 16 0 0.0 0.0 0.00 0.00 0.00 41 1014.3
20260508004204 16 0 0.0 0.0 0.00 0.00 0.00 40 1014.3
20260508004104 16 0 0.0 0.0 0.00 0.00 0.00 40 1014.3
20260508004003 16 0 0.0 0.0 0.00 0.00 0.00 40 1014.4
20260508003903 16 0 0.0 0.0 0.00 0.00 0.00 40 1014.4
20260508003804 16 0 0.0 0.0 0.00 0.00 0.00 40 1014.5
20260508003703 16 0 0.0 0.0 0.00 0.00 0.00 40 1014.5
20260508003604 16 0 0.0 0.0 0.00 0.00 0.00 41 1014.4
20260508003504 16 0 0.0 0.0 0.00 0.00 0.00 41 1014.5
20260508003403 16 0 0.0 0.0 0.00 0.00 0.00 40 1014.5
20260508003304 16 0 0.0 0.0 0.00 0.00 0.00 40 1014.5
20260508003103 16 0 0.0 0.0 0.00 0.00 0.00 40 1014.5
20260508003003 16 0 0.0 0.0 0.00 0.00 0.00 42 1014.5
20260508002904 16 0 0.0 0.0 0.00 0.00 0.00 41 1014.5
20260508002803 16 0 0.0 0.0 0.00 0.00 0.00 41 1014.6
20260508002703 16 0 0.0 0.0 0.00 0.00 0.00 41 1014.6
20260508002604 16 0 0.0 0.0 0.00 0.00 0.00 42 1014.6
20260508002503 16 0 0.0 0.0 0.00 0.00 0.00 41 1014.5
20260508002403 16 0 0.0 0.0 0.00 0.00 0.00 41 1014.6
20260508002306 16 0 0.0 0.0 0.00 0.00 0.00 41 1014.6
20260508002204 16 0 0.0 0.0 0.00 0.00 0.00 41 1014.6
20260508002103 16 0 0.0 0.0 0.00 0.00 0.00 41 1014.6
20260508002004 16 0 0.0 0.0 0.00 0.00 0.00 40 1014.6
20260508001904 16 0 0.0 0.0 0.00 0.00 0.00 41 1014.6
20260508001803 16 0 0.0 0.0 0.00 0.00 0.00 40 1014.7
20260508001704 16 0 0.0 0.0 0.00 0.00 0.00 39 1014.7
20260508001604 16 0 0.0 0.0 0.00 0.00 0.00 40 1014.7
20260508001503 16 0 0.0 0.0 0.00 0.00 0.00 39 1014.8
20260508001404 16 0 0.0 0.0 0.00 0.00 0.00 38 1014.8
20260508001304 16 0 0.0 0.0 0.00 0.00 0.00 38 1014.7
20260508001203 16 0 0.0 0.0 0.00 0.00 0.00 38 1014.7
20260508001103 16 0 0.0 0.0 0.00 0.00 0.00 38 1014.9
20260508001004 16 0 0.0 0.0 0.00 0.00 0.00 39 1014.9
20260508000903 16 0 0.0 0.0 0.00 0.00 0.00 38 1014.8
20260508000804 16 0 0.0 0.0 0.00 0.00 0.00 38 1014.8
20260508000704 16 0 0.0 0.0 0.00 0.00 0.00 38 1014.8
20260508000603 16 0 0.0 0.0 0.00 0.00 0.00 38 1014.8
20260508000405 16 0 0.0 0.0 0.00 0.00 0.00 39 1014.9
20260508000305 16 0 0.0 0.0 0.00 0.00 0.00 39 1014.9
20260508000204 16 0 0.0 0.0 0.00 0.00 0.00 39 1014.9
20260508000104 16 0 0.0 0.0 0.00 0.00 0.00 40 1014.9
20260508000004 16 0 0.0 0.0 0.00 0.00 0.00 40 1014.5
20260507235903 16 0 0.0 0.0 0.00 0.00 0.00 40 1014.5
20260507235804 16 0 0.0 0.0 0.00 0.00 0.00 40 1014.5
20260507235704 16 0 0.0 0.0 0.00 0.00 0.00 39 1014.6
20260507235603 16 0 0.0 0.0 0.00 0.00 0.00 39 1014.5
20260507235504 16 0 0.0 0.0 0.00 0.00 0.00 39 1014.6
20260507235404 16 0 0.0 1.6 0.00 0.00 0.00 39 1014.5
20260507235306 16 0 0.0 1.6 0.00 0.00 0.00 40 1014.5
20260507235204 16 0 0.0 1.6 0.00 0.00 0.00 40 1014.5
20260507235104 16 0 0.0 1.6 0.00 0.00 0.00 40 1014.5
20260507235003 17 0 0.0 1.6 0.00 0.00 0.00 39 1014.6
20260507234902 17 0 0.0 1.6 0.00 0.00 0.00 39 1014.6
20260507234802 17 0 0.0 1.6 0.00 0.00 0.00 40 1014.6
20260507234702 17 0 0.0 1.6 0.00 0.00 0.00 39 1014.6
20260507234603 17 0 0.0 1.6 0.00 0.00 0.00 39 1014.6
20260507234402 17 0 0.0 1.6 0.00 0.00 0.00 38 1014.6
20260507234303 17 0 0.0 1.6 0.00 0.00 0.00 39 1014.6
20260507234202 17 0 0.0 1.6 0.00 0.00 0.00 38 1014.6
20260507234102 17 0 0.0 1.6 0.00 0.00 0.00 37 1014.6
20260507234003 17 0 0.0 1.6 0.00 0.00 0.00 37 1014.6
20260507233902 17 0 0.0 1.6 0.00 0.00 0.00 37 1014.7
20260507233802 17 0 0.0 1.6 0.00 0.00 0.00 36 1014.6
20260507233703 17 65 0.0 1.6 0.00 0.00 0.00 36 1014.6
20260507233602 17 65 0.0 1.6 0.00 0.00 0.00 36 1014.7
20260507233502 17 65 0.0 1.6 0.00 0.00 0.00 37 1014.7
20260507233402 17 54 0.0 1.6 0.00 0.00 0.00 37 1014.6
20260507233302 18 54 1.6 1.6 0.00 0.00 0.00 37 1014.6
20260507233202 18 54 1.6 1.6 0.00 0.00 0.00 37 1014.6
20260507233102 18 53 1.6 1.6 0.00 0.00 0.00 36 1014.6
20260507233002 18 0 1.6 0.0 0.00 0.00 0.00 34 1014.6
20260507232902 18 0 1.6 0.0 0.00 0.00 0.00 33 1014.5
20260507232802 18 0 1.6 0.0 0.00 0.00 0.00 32 1014.6
20260507232703 18 231 1.6 12.9 0.00 0.00 0.00 32 1014.6
20260507232602 18 228 1.6 12.9 0.00 0.00 0.00 32 1014.5
20260507232502 18 219 1.6 12.9 0.00 0.00 0.00 32 1014.5
20260507232403 18 213 1.6 12.9 0.00 0.00 0.00 32 1014.5
20260507232306 18 213 0.0 12.9 0.00 0.00 0.00 31 1014.6
20260507232202 18 216 0.0 12.9 0.00 0.00 0.00 31 1014.6
20260507232103 18 216 0.0 12.9 0.00 0.00 0.00 32 1014.6
20260507232002 18 216 0.0 12.9 0.00 0.00 0.00 32 1014.7
20260507231902 18 216 0.0 12.9 0.00 0.00 0.00 32 1014.5
20260507231702 18 194 0.0 9.7 0.00 0.00 0.00 33 1014.5
20260507231607 18 192 0.0 9.7 0.00 0.00 0.00 33 1014.5
20260507231502 18 190 0.0 9.7 0.00 0.00 0.00 33 1014.6
20260507231402 18 194 1.6 9.7 0.00 0.00 0.00 32 1014.5
20260507231302 18 192 1.6 9.7 0.00 0.00 0.00 32 1014.5
20260507231202 18 192 1.6 6.4 0.00 0.00 0.00 31 1014.6
20260507231002 18 191 1.6 6.4 0.00 0.00 0.00 31 1014.6
20260507230902 18 189 1.6 6.4 0.00 0.00 0.00 32 1014.5
20260507230802 18 187 1.6 11.3 0.00 0.00 0.00 31 1014.6
20260507230702 18 187 0.0 11.3 0.00 0.00 0.00 31 1014.5
20260507230602 18 188 0.0 11.3 0.00 0.00 0.00 32 1014.5
20260507230502 18 196 0.0 11.3 0.00 0.00 0.00 31 1014.6
20260507230403 18 197 0.0 11.3 0.00 0.00 0.00 31 1014.6
20260507230302 18 196 0.0 11.3 0.00 0.00 0.00 32 1014.6
20260507230203 18 185 0.0 11.3 0.00 0.00 0.00 32 1014.7
20260507230002 18 184 0.0 11.3 0.00 0.00 0.00 33 1014.6
20260507225902 18 183 0.0 11.3 0.00 0.00 0.00 33 1014.6
20260507225802 18 0 1.6 0.0 0.00 0.00 0.00 32 1014.7
20260507225702 18 0 1.6 0.0 0.00 0.00 0.00 32 1014.7
20260507225602 18 0 1.6 0.0 0.00 0.00 0.00 32 1014.7
20260507225503 18 0 1.6 0.0 0.00 0.00 0.00 32 1014.7
20260507225402 17 208 1.6 1.6 0.00 0.00 0.00 32 1014.7
20260507225305 17 213 1.6 12.9 0.00 0.00 0.00 33 1014.7
20260507225102 17 216 1.6 17.7 0.00 0.00 0.00 32 1014.8
20260507225002 17 216 1.6 17.7 0.00 0.00 0.00 33 1014.8
20260507224903 17 216 0.0 17.7 0.00 0.00 0.00 32 1014.8
20260507224803 17 216 0.0 17.7 0.00 0.00 0.00 32 1014.8
20260507224702 17 216 0.0 17.7 0.00 0.00 0.00 32 1014.9
20260507224602 17 216 0.0 17.7 0.00 0.00 0.00 32 1014.9
20260507224502 17 216 0.0 17.7 0.00 0.00 0.00 32 1014.9
20260507224403 17 0 0.0 17.7 0.00 0.00 0.00 33 1014.8
20260507224302 17 0 0.0 17.7 0.00 0.00 0.00 33 1014.8
20260507224202 17 0 0.0 3.2 0.00 0.00 0.00 34 1014.8
20260507224102 17 0 0.0 3.2 0.00 0.00 0.00 35 1014.9
20260507224003 17 0 0.0 3.2 0.00 0.00 0.00 35 1014.9
20260507223902 17 0 0.0 3.2 0.00 0.00 0.00 35 1014.8
20260507223802 17 0 0.0 3.2 0.00 0.00 0.00 35 1014.9
20260507223702 17 0 0.0 3.2 0.00 0.00 0.00 35 1015.0
20260507223602 17 0 0.0 3.2 0.00 0.00 0.00 35 1015.0
20260507223502 17 0 0.0 3.2 0.00 0.00 0.00 36 1015.0
20260507223402 17 0 0.0 3.2 0.00 0.00 0.00 36 1014.9
20260507223303 17 0 0.0 3.2 0.00 0.00 0.00 36 1015.0
20260507223202 16 0 0.0 3.2 0.00 0.00 0.00 37 1015.0
20260507223103 16 0 0.0 3.2 0.00 0.00 0.00 36 1015.1
20260507223002 16 0 0.0 3.2 0.00 0.00 0.00 37 1015.1
20260507222902 16 0 0.0 3.2 0.00 0.00 0.00 37 1015.1
20260507222803 16 0 0.0 1.6 0.00 0.00 0.00 37 1015.1
20260507222702 16 0 0.0 1.6 0.00 0.00 0.00 37 1015.1
20260507222602 16 175 0.0 1.6 0.00 0.00 0.00 38 1015.1
20260507222502 16 0 0.0 0.0 0.00 0.00 0.00 38 1015.2
20260507222402 16 0 0.0 0.0 0.00 0.00 0.00 38 1015.2
20260507222306 16 67 0.0 1.6 0.00 0.00 0.00 39 1015.3
20260507222202 16 67 1.6 1.6 0.00 0.00 0.00 39 1015.3
20260507222102 15 67 1.6 1.6 0.00 0.00 0.00 39 1015.3
20260507222002 15 67 1.6 1.6 0.00 0.00 0.00 40 1015.4
20260507221902 15 67 1.6 1.6 0.00 0.00 0.00 40 1015.4
20260507221802 15 67 1.6 1.6 0.00 0.00 0.00 40 1015.4
20260507221702 15 67 3.2 1.6 0.00 0.00 0.00 39 1015.4
20260507221603 15 80 3.2 9.7 0.00 0.00 0.00 39 1015.4
20260507221502 15 76 3.2 11.3 0.00 0.00 0.00 38 1015.5
20260507221402 15 76 3.2 11.3 0.00 0.00 0.00 38 1015.5
20260507221303 15 76 3.2 11.3 0.00 0.00 0.00 38 1015.6
20260507221202 15 77 3.2 12.9 0.00 0.00 0.00 38 1015.6
20260507221102 15 77 1.6 12.9 0.00 0.00 0.00 38 1015.6
20260507221002 15 77 1.6 12.9 0.00 0.00 0.00 38 1015.6
20260507220802 15 77 1.6 12.9 0.00 0.00 0.00 38 1015.6
20260507220702 15 77 1.6 12.9 0.00 0.00 0.00 38 1015.6
20260507220603 15 77 1.6 12.9 0.00 0.00 0.00 38 1015.5
20260507220502 15 79 1.6 12.9 0.00 0.00 0.00 39 1015.6
20260507220402 15 81 0.0 12.9 0.00 0.00 0.00 38 1015.6
20260507220303 15 86 0.0 12.9 0.00 0.00 0.00 39 1015.6
20260507215802 15 0 0.0 3.2 0.00 0.00 0.00 39 1015.3
20260507215702 15 0 0.0 3.2 0.00 0.00 0.00 39 1015.4
20260507215603 15 0 0.0 3.2 0.00 0.00 0.00 38 1015.4
20260507215502 15 0 0.0 3.2 0.00 0.00 0.00 38 1015.5
20260507215306 15 0 0.0 3.2 0.00 0.00 0.00 38 1015.6
20260507215102 15 0 0.0 3.2 0.00 0.00 0.00 38 1015.5
20260507215002 15 0 0.0 3.2 0.00 0.00 0.00 38 1015.6
20260507214902 15 0 0.0 3.2 0.00 0.00 0.00 38 1015.6
20260507214802 15 0 0.0 3.2 0.00 0.00 0.00 38 1015.6
20260507214702 16 0 0.0 3.2 0.00 0.00 0.00 38 1015.6
20260507214602 16 0 0.0 3.2 0.00 0.00 0.00 38 1015.6
20260507214502 16 0 0.0 3.2 0.00 0.00 0.00 38 1015.7
20260507214402 16 0 0.0 3.2 0.00 0.00 0.00 38 1015.7
20260507214303 15 0 0.0 3.2 0.00 0.00 0.00 39 1015.7
20260507214202 15 0 0.0 0.0 0.00 0.00 0.00 39 1015.7
20260507214103 15 0 0.0 0.0 0.00 0.00 0.00 39 1015.7
20260507214002 15 0 0.0 0.0 0.00 0.00 0.00 39 1015.7
20260507213903 15 0 0.0 1.6 0.00 0.00 0.00 39 1015.7
20260507213802 15 0 0.0 1.6 0.00 0.00 0.00 39 1015.7
20260507213702 15 0 0.0 1.6 0.00 0.00 0.00 39 1015.7
20260507213602 15 0 0.0 1.6 0.00 0.00 0.00 39 1015.8
20260507213502 15 0 0.0 1.6 0.00 0.00 0.00 38 1015.9
20260507213402 15 0 0.0 1.6 0.00 0.00 0.00 39 1015.9
20260507213302 15 0 0.0 1.6 0.00 0.00 0.00 38 1016.0
20260507213202 15 0 0.0 1.6 0.00 0.00 0.00 38 1016.0
20260507213102 15 0 0.0 1.6 0.00 0.00 0.00 38 1016.1
20260507213003 15 0 0.0 1.6 0.00 0.00 0.00 38 1016.1
20260507212902 15 0 0.0 0.0 0.00 0.00 0.00 38 1016.2
20260507212803 15 0 0.0 0.0 0.00 0.00 0.00 39 1016.2
20260507212602 15 0 0.0 0.0 0.00 0.00 0.00 39 1016.3
20260507212503 15 0 0.0 0.0 0.00 0.00 0.00 38 1016.4
20260507212306 15 0 0.0 0.0 0.00 0.00 0.00 38 1016.4
20260507212103 15 0 0.0 1.6 0.00 0.00 0.00 38 1016.5
20260507212002 15 0 0.0 1.6 0.00 0.00 0.00 38 1016.5
20260507211702 15 0 0.0 1.6 0.00 0.00 0.00 38 1016.6
20260507211602 15 0 0.0 1.6 0.00 0.00 0.00 38 1016.7
20260507211502 15 0 0.0 1.6 0.00 0.00 0.00 38 1016.8
20260507211402 15 0 0.0 1.6 0.00 0.00 0.00 39 1016.7
20260507211302 15 0 0.0 1.6 0.00 0.00 0.00 39 1016.8
20260507211103 15 0 0.0 1.6 0.00 0.00 0.00 40 1016.8
20260507211002 15 0 0.0 1.6 0.00 0.00 0.00 40 1016.7
20260507210902 15 0 0.0 1.6 0.00 0.00 0.00 40 1016.7
20260507210802 15 0 0.0 1.6 0.00 0.00 0.00 41 1016.7
20260507210702 15 0 0.0 0.0 0.00 0.00 0.00 39 1016.7
20260507210603 14 0 0.0 0.0 0.00 0.00 0.00 40 1016.7
20260507210502 14 0 0.0 0.0 0.00 0.00 0.00 39 1016.8
20260507210402 14 0 0.0 0.0 0.00 0.00 0.00 40 1016.8
20260507210303 14 0 0.0 0.0 0.00 0.00 0.00 39 1016.9
20260507210202 14 0 0.0 0.0 0.00 0.00 0.00 40 1016.8
20260507210003 14 0 0.0 0.0 0.00 0.00 0.00 39 1016.9
20260507205902 14 0 0.0 0.0 0.00 0.00 0.00 40 1016.9
20260507205802 14 0 0.0 0.0 0.00 0.00 0.00 40 1016.9
20260507205703 14 0 0.0 0.0 0.00 0.00 0.00 40 1016.8
20260507205602 14 0 0.0 0.0 0.00 0.00 0.00 41 1016.7
20260507205503 14 0 0.0 0.0 0.00 0.00 0.00 41 1016.7
20260507205402 14 0 0.0 0.0 0.00 0.00 0.00 40 1016.7
20260507205306 14 0 0.0 0.0 0.00 0.00 0.00 40 1016.7
20260507205102 14 0 0.0 0.0 0.00 0.00 0.00 40 1016.8
20260507205002 13 0 0.0 1.6 0.00 0.00 0.00 41 1016.8
20260507204903 13 0 0.0 1.6 0.00 0.00 0.00 41 1016.8
20260507204802 13 0 0.0 1.6 0.00 0.00 0.00 41 1016.8
20260507204702 13 0 0.0 1.6 0.00 0.00 0.00 42 1016.8
20260507204602 13 0 0.0 1.6 0.00 0.00 0.00 42 1016.8
20260507204402 13 0 0.0 1.6 0.00 0.00 0.00 41 1016.9
20260507204303 13 0 0.0 1.6 0.00 0.00 0.00 40 1017.0
20260507204202 13 0 0.0 1.6 0.00 0.00 0.00 41 1017.0
20260507204102 13 0 0.0 1.6 0.00 0.00 0.00 41 1017.0
20260507204003 13 0 0.0 1.6 0.00 0.00 0.00 41 1017.1
20260507203902 13 0 0.0 1.6 0.00 0.00 0.00 41 1017.1
20260507203802 13 0 0.0 0.0 0.00 0.00 0.00 42 1017.1
20260507203703 13 0 0.0 0.0 0.00 0.00 0.00 41 1017.1
20260507203602 13 0 0.0 0.0 0.00 0.00 0.00 41 1017.3
20260507203502 13 0 0.0 0.0 0.00 0.00 0.00 42 1017.3
20260507203402 13 0 0.0 0.0 0.00 0.00 0.00 41 1017.4
20260507203302 13 0 0.0 0.0 0.00 0.00 0.00 41 1017.5
20260507203203 13 0 0.0 0.0 0.00 0.00 0.00 41 1017.5
20260507203102 13 0 0.0 0.0 0.00 0.00 0.00 41 1017.5
20260507203002 13 0 0.0 0.0 0.00 0.00 0.00 41 1017.5
20260507202903 13 0 0.0 0.0 0.00 0.00 0.00 42 1017.5
20260507202802 13 0 0.0 0.0 0.00 0.00 0.00 42 1017.5
20260507202702 13 0 0.0 0.0 0.00 0.00 0.00 42 1017.5
20260507202603 13 0 0.0 0.0 0.00 0.00 0.00 42 1017.5
20260507202502 13 0 0.0 0.0 0.00 0.00 0.00 42 1017.5
20260507202306 13 0 0.0 0.0 0.00 0.00 0.00 43 1017.6
20260507202202 13 0 1.6 0.0 0.00 0.00 0.00 43 1017.6
20260507202103 13 0 1.6 0.0 0.00 0.00 0.00 43 1017.6
20260507202002 13 0 1.6 0.0 0.00 0.00 0.00 43 1017.7
20260507201902 13 68 1.6 1.6 0.00 0.00 0.00 43 1017.7
20260507201802 13 68 3.2 1.6 0.00 0.00 0.00 44 1017.7
20260507201702 13 84 3.2 9.7 0.00 0.00 0.00 44 1017.7
20260507201602 13 84 4.8 9.7 0.00 0.00 0.00 43 1017.7
20260507201502 13 83 4.8 9.7 0.00 0.00 0.00 43 1017.7
20260507201402 12 67 6.4 9.7 0.00 0.00 0.00 44 1017.6
20260507201303 12 55 6.4 11.3 0.00 0.00 0.00 43 1017.7
20260507201202 12 54 6.4 11.3 0.00 0.00 0.00 44 1017.7
20260507201102 12 50 8.0 14.5 0.00 0.00 0.00 44 1017.7
20260507201002 12 48 8.0 14.5 0.00 0.00 0.00 45 1017.7
20260507200903 12 45 8.0 16.1 0.00 0.00 0.00 44 1017.8
20260507200802 12 43 8.0 19.3 0.00 0.00 0.00 44 1017.7
20260507200702 12 37 8.0 19.3 0.00 0.00 0.00 44 1017.7
20260507200602 12 36 8.0 19.3 0.00 0.00 0.00 45 1017.6
20260507200502 12 36 8.0 19.3 0.00 0.00 0.00 45 1017.7
20260507200402 12 36 8.0 19.3 0.00 0.00 0.00 45 1017.8
20260507200303 12 35 8.0 19.3 0.00 0.00 0.00 44 1017.8
20260507200202 12 32 6.4 19.3 0.00 0.00 0.00 44 1017.9
20260507195902 12 26 6.4 19.3 0.00 0.00 0.00 45 1017.7
20260507195803 12 26 4.8 16.1 0.00 0.00 0.00 47 1017.6
20260507195702 12 26 4.8 14.5 0.00 0.00 0.00 46 1017.8
20260507195602 12 24 4.8 14.5 0.00 0.00 0.00 45 1017.8
20260507195503 12 21 4.8 14.5 0.00 0.00 0.00 46 1017.8
20260507195402 12 21 4.8 14.5 0.00 0.00 0.00 46 1017.8
20260507195305 12 16 4.8 14.5 0.00 0.00 0.00 46 1017.8
20260507195202 12 10 4.8 14.5 0.00 0.00 0.00 47 1017.8
20260507195102 11 357 4.8 14.5 0.00 0.00 0.00 47 1017.9
20260507195003 11 1 4.8 14.5 0.00 0.00 0.00 47 1017.8
20260507194902 11 3 6.4 14.5 0.00 0.00 0.00 47 1017.8
20260507194803 11 1 6.4 12.9 0.00 0.00 0.00 47 1017.8
20260507194702 11 358 8.0 11.3 0.00 0.00 0.00 47 1017.8
20260507194602 11 2 8.0 11.3 0.00 0.00 0.00 48 1017.7
20260507194403 12 19 9.7 12.9 0.00 0.00 0.00 44 1017.6
20260507194302 12 33 9.7 14.5 0.00 0.00 0.00 44 1017.7
20260507194102 12 45 9.7 14.5 0.00 0.00 0.00 47 1017.8
20260507193902 12 49 11.3 19.3 0.00 0.00 0.00 46 1017.9
20260507193804 11 51 11.3 19.3 0.00 0.00 0.00 45 1017.7
20260507193702 11 50 11.3 19.3 0.00 0.00 0.00 45 1017.7
20260507193602 11 49 11.3 19.3 0.00 0.00 0.00 46 1017.9
20260507193503 11 47 9.7 19.3 0.00 0.00 0.00 45 1017.8
20260507193402 12 42 9.7 19.3 0.00 0.00 0.00 45 1017.8
20260507193302 12 41 9.7 19.3 0.00 0.00 0.00 46 1017.9
20260507193203 12 40 9.7 19.3 0.00 0.00 0.00 45 1018.0
20260507193102 12 41 8.0 19.3 0.00 0.00 0.00 46 1018.0
20260507193002 12 44 8.0 19.3 0.00 0.00 0.00 44 1017.9
20260507192902 12 45 8.0 19.3 0.00 0.00 0.00 44 1017.9
20260507192802 12 44 6.4 19.3 0.00 0.00 0.00 44 1018.1
20260507192703 12 41 6.4 19.3 0.00 0.00 0.00 46 1018.1
20260507192502 12 41 8.0 14.5 0.00 0.00 0.00 46 1018.2
20260507192402 12 45 8.0 14.5 0.00 0.00 0.00 46 1018.2
20260507192305 12 33 8.0 14.5 0.00 0.00 0.00 45 1018.2
20260507192203 12 23 8.0 14.5 0.00 0.00 0.00 46 1018.2
20260507192102 12 9 9.7 14.5 0.00 0.00 0.00 47 1018.1
20260507192002 12 2 9.7 14.5 0.00 0.00 0.00 47 1018.2
20260507191902 12 352 9.7 16.1 0.00 0.00 0.00 47 1018.2
20260507191802 12 350 11.3 17.7 0.00 0.00 0.00 46 1018.2
20260507191703 12 352 11.3 19.3 0.00 0.00 0.00 48 1018.2
20260507191602 11 2 11.3 19.3 0.00 0.00 0.00 47 1018.2
20260507191502 11 9 11.3 19.3 0.00 0.00 0.00 46 1018.2
20260507191403 11 12 11.3 19.3 0.00 0.00 0.00 46 1018.2
20260507191302 11 15 11.3 19.3 0.00 0.00 0.00 46 1018.2
20260507191202 11 19 9.7 19.3 0.00 0.00 0.00 46 1018.2
20260507191103 12 22 9.7 19.3 0.00 0.00 0.00 46 1018.2
20260507191002 12 23 9.7 19.3 0.00 0.00 0.00 45 1018.2
20260507190902 12 26 9.7 19.3 0.00 0.00 0.00 45 1018.2
20260507190802 12 28 8.0 19.3 0.00 0.00 0.00 45 1018.2
20260507190702 12 33 8.0 19.3 0.00 0.00 0.00 45 1018.3
20260507190603 12 35 8.0 17.7 0.00 0.00 0.00 44 1018.3
20260507190502 12 35 8.0 17.7 0.00 0.00 0.00 46 1018.3
20260507190402 12 33 8.0 17.7 0.00 0.00 0.00 46 1018.3
20260507190302 12 31 8.0 17.7 0.00 0.00 0.00 46 1018.4
20260507190203 12 29 8.0 17.7 0.00 0.00 0.00 46 1018.4
20260507190004 11 30 8.0 17.7 0.00 0.00 0.00 46 1018.5
20260507185902 11 30 8.0 17.7 0.00 0.00 0.00 45 1018.5
20260507185802 11 25 8.0 17.7 0.00 0.00 0.00 44 1018.5
20260507185703 12 25 8.0 17.7 0.00 0.00 0.00 46 1018.7
20260507185602 12 25 8.0 14.5 0.00 0.00 0.00 45 1018.7
20260507185502 12 25 8.0 14.5 0.00 0.00 0.00 45 1018.7
20260507185402 12 29 8.0 14.5 0.00 0.00 0.00 44 1018.7
20260507185305 12 38 8.0 14.5 0.00 0.00 0.00 43 1018.6
20260507185202 12 45 8.0 14.5 0.00 0.00 0.00 45 1018.6
20260507185102 12 48 8.0 14.5 0.00 0.00 0.00 44 1018.6
20260507185003 12 50 9.7 14.5 0.00 0.00 0.00 44 1018.6
20260507184902 12 50 9.7 14.5 0.00 0.00 0.00 44 1018.6
20260507184802 11 57 9.7 14.5 0.00 0.00 0.00 44 1018.6
20260507184703 11 60 9.7 14.5 0.00 0.00 0.00 46 1018.8
20260507184603 11 65 9.7 16.1 0.00 0.00 0.00 45 1018.6
20260507184502 11 67 9.7 16.1 0.00 0.00 0.00 44 1018.5
20260507184402 11 66 9.7 16.1 0.00 0.00 0.00 44 1018.5
20260507184303 11 68 9.7 16.1 0.00 0.00 0.00 44 1018.6
20260507184202 11 71 9.7 16.1 0.00 0.00 0.00 45 1018.8
20260507184102 11 75 8.0 24.1 0.00 0.00 0.00 44 1018.7
20260507184003 11 74 8.0 24.1 0.00 0.00 0.00 43 1018.6
20260507183902 11 74 8.0 24.1 0.00 0.00 0.00 43 1018.7
20260507183802 12 74 8.0 24.1 0.00 0.00 0.00 44 1018.8
20260507183702 11 71 8.0 24.1 0.00 0.00 0.00 43 1018.7
20260507183602 12 65 9.7 24.1 0.00 0.00 0.00 46 1018.7
20260507183502 11 58 9.7 24.1 0.00 0.00 0.00 45 1018.8
20260507183402 11 56 9.7 24.1 0.00 0.00 0.00 45 1018.7
20260507183302 11 56 9.7 24.1 0.00 0.00 0.00 45 1018.8
20260507183203 11 57 9.7 24.1 0.00 0.00 0.00 46 1018.8
20260507183102 11 55 9.7 17.7 0.00 0.00 0.00 44 1018.6
20260507183002 11 63 9.7 17.7 0.00 0.00 0.00 45 1018.8
20260507182902 11 68 9.7 17.7 0.00 0.00 0.00 45 1018.9
20260507182803 11 72 9.7 20.9 0.00 0.00 0.00 45 1018.9
20260507182702 11 76 9.7 20.9 0.00 0.00 0.00 46 1019.0
20260507182602 11 77 9.7 20.9 0.00 0.00 0.00 45 1018.9
20260507182503 11 83 9.7 20.9 0.00 0.00 0.00 45 1018.9
20260507182402 11 86 9.7 20.9 0.00 0.00 0.00 46 1019.1
20260507182306 11 86 9.7 20.9 0.00 0.00 0.00 46 1019.2
20260507182202 11 81 9.7 20.9 0.00 0.00 0.00 45 1019.0
20260507182102 11 77 9.7 20.9 0.00 0.00 0.00 45 1019.1
20260507182003 11 72 9.7 20.9 0.00 0.00 0.00 47 1019.3
20260507181902 11 69 9.7 20.9 0.00 0.00 0.00 47 1019.3
20260507181802 11 67 9.7 17.7 0.00 0.00 0.00 48 1019.2
20260507181702 11 66 9.7 16.1 0.00 0.00 0.00 46 1019.0
20260507181602 11 67 9.7 16.1 0.00 0.00 0.00 45 1019.1
20260507181503 11 64 9.7 16.1 0.00 0.00 0.00 46 1019.1
20260507181402 10 64 9.7 16.1 0.00 0.00 0.00 46 1019.3
20260507181302 10 69 9.7 16.1 0.00 0.00 0.00 46 1019.3
20260507181203 10 73 9.7 17.7 0.00 0.00 0.00 46 1019.3
20260507181102 10 77 8.0 17.7 0.00 0.00 0.00 47 1019.3
20260507181002 10 83 8.0 17.7 0.00 0.00 0.00 47 1019.3
20260507180803 10 81 8.0 17.7 0.00 0.00 0.00 47 1019.3
20260507180702 10 83 8.0 17.7 0.00 0.00 0.00 48 1019.4
20260507180603 10 84 6.4 17.7 0.00 0.00 0.00 48 1019.4
20260507180502 10 87 6.4 17.7 0.00 0.00 0.00 47 1019.4
20260507180402 10 84 6.4 17.7 0.00 0.00 0.00 47 1019.4
20260507180303 10 83 6.4 17.7 0.00 0.00 0.00 47 1019.4
20260507180202 10 86 6.4 16.1 0.00 0.00 0.00 48 1019.5
20260507180003 10 89 6.4 16.1 0.00 0.00 0.00 48 1019.4
20260507175802 10 104 6.4 12.9 0.00 0.00 0.00 50 1019.6
20260507175703 10 108 6.4 12.9 0.00 0.00 0.00 48 1019.5
20260507175602 10 114 6.4 12.9 0.00 0.00 0.00 48 1019.5
20260507175502 10 116 6.4 12.9 0.00 0.00 0.00 49 1019.5
20260507175403 9 122 6.4 12.9 0.00 0.00 0.00 48 1019.5
20260507175306 9 120 6.4 12.9 0.00 0.00 0.00 49 1019.5
20260507175203 9 120 6.4 12.9 0.00 0.00 0.00 52 1019.6
20260507175102 9 121 6.4 12.9 0.00 0.00 0.00 51 1019.6
20260507175002 9 117 6.4 12.9 0.00 0.00 0.00 51 1019.7
20260507174903 9 111 4.8 12.9 0.00 0.00 0.00 51 1019.7
20260507174802 8 109 4.8 12.9 0.00 0.00 0.00 52 1019.8
20260507174702 8 107 4.8 12.9 0.00 0.00 0.00 51 1019.8
20260507174603 8 103 4.8 12.9 0.00 0.00 0.00 51 1019.8
20260507174502 8 101 6.4 12.9 0.00 0.00 0.00 51 1019.8
20260507174403 8 100 6.4 12.9 0.00 0.00 0.00 52 1019.9
20260507174302 8 100 6.4 12.9 0.00 0.00 0.00 52 1019.9
20260507174202 8 100 8.0 11.3 0.00 0.00 0.00 52 1020.0
20260507174103 8 95 8.0 11.3 0.00 0.00 0.00 51 1020.1
20260507173902 8 85 9.7 11.3 0.00 0.00 0.00 53 1020.2